NORTHRYDE Weather Reports


Display with metric or nautical units.
time (UTC)temp
F
wind
direction
speed
MPH
gust
MPH
rain 1hr
in
rain 24hr
in
rain mn
in
humidity
%
barometer
mb
20260509200312 49 275 1.0 3.0 0.00 0.00 0.00 91 1028.4
20260509200209 49 275 1.0 3.0 0.00 0.00 0.00 91 1028.3
20260509200109 49 275 1.0 3.0 0.00 0.00 0.00 91 1028.4
20260509200010 49 275 2.0 3.0 0.00 0.00 0.00 91 1028.3
20260509195810 49 275 1.0 3.0 0.00 0.00 0.00 91 1028.3
20260509195719 49 275 1.0 3.0 0.00 0.00 0.00 91 1028.3
20260509195609 49 281 2.0 3.0 0.00 0.00 0.00 91 1028.3
20260509195514 49 273 2.0 3.0 0.00 0.00 0.00 91 1028.3
20260509195312 49 297 1.0 2.0 0.00 0.00 0.00 91 1028.1
20260509195219 49 297 1.0 2.0 0.00 0.00 0.00 91 1028.1
20260509195113 49 297 1.0 2.0 0.00 0.00 0.00 91 1028.2
20260509195010 49 297 1.0 2.0 0.00 0.00 0.00 91 1028.1
20260509194929 49 297 1.0 2.0 0.00 0.00 0.00 91 1028.1
20260509194813 49 297 0.0 2.0 0.00 0.00 0.00 91 1028.1
20260509194710 49 297 0.0 2.0 0.00 0.00 0.00 91 1027.9
20260509194611 49 298 0.0 2.0 0.00 0.00 0.00 91 1028.0
20260509194511 49 297 0.0 2.0 0.00 0.00 0.00 91 1027.9
20260509194313 49 297 0.0 2.0 0.00 0.00 0.00 91 1028.0
20260509194243 49 297 0.0 1.0 0.00 0.00 0.00 91 1027.9
20260509194214 49 297 0.0 1.0 0.00 0.00 0.00 91 1027.9
20260509194150 49 297 0.0 1.0 0.00 0.00 0.00 91 1027.9
20260509194123 49 297 0.0 1.0 0.00 0.00 0.00 91 1027.9
20260509193811 49 297 0.0 1.0 0.00 0.00 0.00 91 1027.9
20260509193709 49 297 0.0 1.0 0.00 0.00 0.00 91 1027.9
20260509193611 49 297 0.0 2.0 0.00 0.00 0.00 91 1027.8
20260509193508 50 297 0.0 2.0 0.00 0.00 0.00 91 1027.9
20260509193412 50 297 0.0 2.0 0.00 0.00 0.00 91 1027.8
20260509193311 50 297 0.0 2.0 0.00 0.00 0.00 91 1027.8
20260509193209 50 297 0.0 2.0 0.00 0.00 0.00 91 1027.8
20260509193108 50 297 0.0 2.0 0.00 0.00 0.00 91 1027.7
20260509193009 50 297 0.0 2.0 0.00 0.00 0.00 91 1027.8
20260509192909 50 297 0.0 2.0 0.00 0.00 0.00 91 1027.8
20260509192814 50 297 1.0 2.0 0.00 0.00 0.00 91 1027.7
20260509192714 50 297 1.0 2.0 0.00 0.00 0.00 91 1027.8
20260509192611 50 297 1.0 2.0 0.00 0.00 0.00 91 1027.7
20260509192511 50 297 1.0 2.0 0.00 0.00 0.00 91 1027.7
20260509192437 50 297 1.0 2.0 0.00 0.00 0.00 91 1027.8
20260509192311 50 297 0.0 2.0 0.00 0.00 0.00 91 1027.8
20260509192209 50 297 0.0 2.0 0.00 0.00 0.00 91 1027.7
20260509192110 50 297 0.0 2.0 0.00 0.00 0.00 91 1027.6
20260509192012 50 297 1.0 2.0 0.00 0.00 0.00 91 1027.7
20260509191909 50 297 1.0 2.0 0.00 0.00 0.00 91 1027.7
20260509191813 50 297 1.0 2.0 0.00 0.00 0.00 91 1027.7
20260509191709 50 297 1.0 2.0 0.00 0.00 0.00 91 1027.7
20260509191607 50 297 0.0 2.0 0.00 0.00 0.00 91 1027.7
20260509191511 50 297 0.0 1.0 0.00 0.00 0.00 91 1027.6
20260509191410 50 297 0.0 1.0 0.00 0.00 0.00 91 1027.7
20260509191311 50 297 0.0 0.0 0.00 0.00 0.00 91 1027.7
20260509191211 50 297 0.0 1.0 0.00 0.00 0.00 91 1027.7
20260509191110 50 297 0.0 2.0 0.00 0.00 0.00 91 1027.6
20260509191008 50 297 0.0 2.0 0.00 0.00 0.00 91 1027.6
20260509190908 50 297 0.0 2.0 0.00 0.00 0.00 91 1027.6
20260509190812 50 297 0.0 2.0 0.00 0.00 0.00 91 1027.7
20260509190710 50 297 0.0 2.0 0.00 0.00 0.00 91 1027.5
20260509190611 50 297 0.0 2.0 0.00 0.00 0.00 91 1027.5
20260509190510 50 297 0.0 2.0 0.00 0.00 0.00 91 1027.6
20260509190409 50 297 0.0 2.0 0.00 0.00 0.00 91 1027.6
20260509190312 50 297 1.0 2.0 0.00 0.00 0.00 91 1027.5
20260509190208 50 297 1.0 2.0 0.00 0.00 0.00 91 1027.5
20260509190110 50 297 1.0 2.0 0.00 0.00 0.00 91 1027.5
20260509190010 50 297 1.0 2.0 0.00 0.00 0.00 91 1027.5
20260509185910 50 297 1.0 2.0 0.00 0.00 0.00 91 1027.5
20260509185814 50 297 1.0 2.0 0.00 0.00 0.00 91 1027.5
20260509185710 50 297 1.0 2.0 0.00 0.00 0.00 91 1027.4
20260509185609 50 297 1.0 2.0 0.00 0.00 0.00 91 1027.5
20260509185509 50 297 1.0 2.0 0.00 0.00 0.00 91 1027.5
20260509185437 50 298 1.0 2.0 0.00 0.00 0.00 91 1027.4
20260509185309 50 297 1.0 2.0 0.00 0.00 0.00 91 1027.4
20260509185212 50 297 1.0 2.0 0.00 0.00 0.00 91 1027.5
20260509185110 50 297 0.0 1.0 0.00 0.00 0.00 91 1027.5
20260509185008 50 297 0.0 1.0 0.00 0.00 0.00 91 1027.4
20260509184911 50 297 0.0 0.0 0.00 0.00 0.00 91 1027.4
20260509184810 50 297 0.0 0.0 0.00 0.00 0.00 91 1027.4
20260509184711 50 297 0.0 0.0 0.00 0.00 0.00 91 1027.4
20260509184607 50 297 0.0 0.0 0.00 0.00 0.00 91 1027.5
20260509184504 50 297 0.0 0.0 0.00 0.00 0.00 91 1027.4
20260509184404 50 297 0.0 1.0 0.00 0.00 0.00 91 1027.4
20260509184310 50 297 0.0 1.0 0.00 0.00 0.00 91 1027.3
20260509184216 50 297 0.0 1.0 0.00 0.00 0.00 91 1027.3
20260509184140 50 297 0.0 2.0 0.00 0.00 0.00 91 1027.3
20260509184122 50 297 0.0 3.0 0.00 0.00 0.00 91 1027.3
20260509184100 50 297 0.0 3.0 0.00 0.00 0.00 91 1027.4
20260509183758 50 297 0.0 3.0 0.00 0.00 0.00 91 1027.4
20260509183658 50 297 0.0 3.0 0.00 0.00 0.00 91 1027.3
20260509183554 50 297 0.0 3.0 0.00 0.00 0.00 91 1027.3
20260509183453 50 297 1.0 3.0 0.00 0.00 0.00 91 1027.2
20260509183353 50 297 1.0 3.0 0.00 0.00 0.00 91 1027.3
20260509183256 50 290 1.0 3.0 0.00 0.00 0.00 91 1027.3
20260509183146 50 289 2.0 3.0 0.00 0.00 0.00 91 1027.2
20260509183046 49 286 2.0 3.0 0.00 0.00 0.00 91 1027.3
20260509182945 49 290 1.0 4.0 0.00 0.00 0.00 91 1027.3
20260509182740 49 292 1.0 4.0 0.00 0.00 0.00 91 1027.3
20260509182637 49 302 1.0 4.0 0.00 0.00 0.00 91 1027.3
20260509182538 49 302 0.0 4.0 0.00 0.00 0.00 91 1027.3
20260509182439 49 302 0.0 4.0 0.00 0.00 0.00 91 1027.2
20260509182242 49 302 1.0 4.0 0.00 0.00 0.00 91 1027.2
20260509182138 49 294 2.0 4.0 0.00 0.00 0.00 91 1027.3
20260509182038 49 306 2.0 4.0 0.00 0.00 0.00 91 1027.2
20260509181937 49 307 2.0 3.0 0.00 0.00 0.00 91 1027.3
20260509181743 49 294 0.0 3.0 0.00 0.00 0.00 91 1027.2
20260509181637 49 281 0.0 3.0 0.00 0.00 0.00 91 1027.2
20260509181538 49 281 0.0 3.0 0.00 0.00 0.00 90 1027.2
20260509181439 49 281 0.0 3.0 0.00 0.00 0.00 90 1027.2
20260509181237 49 281 0.0 3.0 0.00 0.00 0.00 90 1027.2
20260509181133 49 281 0.0 3.0 0.00 0.00 0.00 90 1027.1
20260509181033 49 281 1.0 4.0 0.00 0.00 0.00 90 1027.1
20260509180931 49 281 2.0 4.0 0.00 0.00 0.00 90 1027.1
20260509180731 49 281 2.0 4.0 0.00 0.00 0.00 90 1027.2
20260509180631 49 292 2.0 4.0 0.00 0.00 0.00 90 1027.1
20260509180529 49 287 1.0 4.0 0.00 0.00 0.00 90 1027.1
20260509180426 49 281 2.0 4.0 0.00 0.00 0.00 90 1027.2
20260509180220 49 283 1.0 4.0 0.00 0.00 0.00 90 1027.2
20260509180122 49 295 0.0 0.0 0.00 0.00 0.00 90 1027.2
20260509180017 49 295 0.0 0.0 0.00 0.00 0.00 90 1027.2
20260509175918 49 295 0.0 0.0 0.00 0.00 0.00 90 1027.1
20260509175813 49 295 0.0 0.0 0.00 0.00 0.00 90 1027.2
20260509175709 49 295 0.0 0.0 0.00 0.00 0.00 90 1027.3
20260509175611 49 295 0.0 0.0 0.00 0.00 0.00 90 1027.1
20260509175512 49 295 0.0 0.0 0.00 0.00 0.00 90 1027.2
20260509175412 49 295 0.0 0.0 0.00 0.00 0.00 90 1027.3
20260509175336 49 295 0.0 0.0 0.00 0.00 0.00 90 1027.2
20260509175210 49 295 0.0 0.0 0.00 0.00 0.00 90 1027.2
20260509175109 49 295 0.0 0.0 0.00 0.00 0.00 90 1027.4
20260509175011 49 295 0.0 0.0 0.00 0.00 0.00 90 1027.3
20260509174910 49 295 0.0 0.0 0.00 0.00 0.00 90 1027.2
20260509174808 49 295 0.0 0.0 0.00 0.00 0.00 90 1027.2
20260509174710 49 295 0.0 0.0 0.00 0.00 0.00 90 1027.3
20260509174616 49 295 0.0 0.0 0.00 0.00 0.00 90 1027.4
20260509174512 49 295 0.0 0.0 0.00 0.00 0.00 90 1027.3
20260509174409 49 295 0.0 0.0 0.00 0.00 0.00 90 1027.3
20260509174311 50 295 0.0 0.0 0.00 0.00 0.00 90 1027.2
20260509174236 50 295 0.0 0.0 0.00 0.00 0.00 90 1027.3
20260509174207 50 295 0.0 0.0 0.00 0.00 0.00 90 1027.2
20260509174144 50 295 0.0 0.0 0.00 0.00 0.00 90 1027.2
20260509173906 50 295 0.0 0.0 0.00 0.00 0.00 90 1027.1
20260509173833 50 295 0.0 0.0 0.00 0.00 0.00 90 1027.2
20260509173809 50 295 0.0 0.0 0.00 0.00 0.00 90 1027.2
20260509173748 50 295 0.0 0.0 0.00 0.00 0.00 90 1027.2
20260509173723 50 295 0.0 0.0 0.00 0.00 0.00 90 1027.1
20260509173703 50 295 0.0 0.0 0.00 0.00 0.00 90 1027.2
20260509173428 50 295 0.0 0.0 0.00 0.00 0.00 90 1027.2
20260509173150 50 295 0.0 0.0 0.00 0.00 0.00 90 1027.1
20260509173123 50 295 0.0 0.0 0.00 0.00 0.00 90 1027.1
20260509173058 50 295 0.0 0.0 0.00 0.00 0.00 90 1027.1
20260509173038 50 295 0.0 0.0 0.00 0.00 0.00 90 1027.2
20260509172738 50 295 0.0 0.0 0.00 0.00 0.00 90 1027.1
20260509172639 50 295 0.0 0.0 0.00 0.00 0.00 90 1027.2
20260509172536 50 295 0.0 0.0 0.00 0.00 0.00 90 1027.1
20260509172440 50 295 0.0 1.0 0.00 0.00 0.00 90 1027.2
20260509172337 50 295 0.0 1.0 0.00 0.00 0.00 90 1027.2
20260509172236 50 295 0.0 1.0 0.00 0.00 0.00 90 1027.2
20260509172145 50 295 0.0 1.0 0.00 0.00 0.00 90 1027.1
20260509172120 50 295 0.0 1.0 0.00 0.00 0.00 90 1027.1
20260509172050 50 295 0.0 1.0 0.00 0.00 0.00 90 1027.1
20260509172033 50 295 0.0 1.0 0.00 0.00 0.00 90 1027.2
20260509171739 50 295 0.0 1.0 0.00 0.00 0.00 90 1027.2
20260509171639 50 295 0.0 1.0 0.00 0.00 0.00 90 1027.2
20260509171546 50 295 0.0 1.0 0.00 0.00 0.00 90 1027.1
20260509171437 50 295 0.0 1.0 0.00 0.00 0.00 90 1027.2
20260509171337 50 295 0.0 1.0 0.00 0.00 0.00 90 1027.2
20260509171239 50 295 0.0 2.0 0.00 0.00 0.00 90 1027.1
20260509171138 50 295 0.0 2.0 0.00 0.00 0.00 90 1027.2
20260509171038 50 295 0.0 2.0 0.00 0.00 0.00 90 1027.3
20260509170937 50 295 0.0 2.0 0.00 0.00 0.00 90 1027.2
20260509170839 50 295 0.0 2.0 0.00 0.00 0.00 90 1027.2
20260509170736 50 295 0.0 2.0 0.00 0.00 0.00 90 1027.1
20260509170639 50 295 0.0 2.0 0.00 0.00 0.00 90 1027.2
20260509170544 50 295 0.0 2.0 0.00 0.00 0.00 90 1027.2
20260509170512 50 295 0.0 2.0 0.00 0.00 0.00 90 1027.1
20260509170421 50 295 0.0 2.0 0.00 0.00 0.00 89 1027.1
20260509170142 50 295 0.0 2.0 0.00 0.00 0.00 89 1027.2
20260509170117 50 295 0.0 1.0 0.00 0.00 0.00 89 1027.2
20260509170052 50 295 0.0 1.0 0.00 0.00 0.00 89 1027.1
20260509170028 50 295 0.0 0.0 0.00 0.00 0.00 89 1027.2
20260509165713 50 295 0.0 0.0 0.00 0.00 0.00 89 1027.2
20260509165611 50 295 0.0 0.0 0.00 0.00 0.00 89 1027.2
20260509165509 50 295 0.0 0.0 0.00 0.00 0.00 89 1027.1
20260509165411 50 295 0.0 0.0 0.00 0.00 0.00 89 1027.1
20260509165213 50 295 0.0 0.0 0.00 0.00 0.00 90 1027.3
20260509165110 50 295 0.0 0.0 0.00 0.00 0.00 89 1027.2
20260509165012 50 295 0.0 0.0 0.00 0.00 0.00 90 1027.2
20260509164909 50 295 0.0 0.0 0.00 0.00 0.00 90 1027.3
20260509164712 50 295 0.0 0.0 0.00 0.00 0.00 89 1027.2
20260509164636 50 295 0.0 0.0 0.00 0.00 0.00 89 1027.2
20260509164613 50 295 0.0 0.0 0.00 0.00 0.00 89 1027.2
20260509164548 50 295 0.0 0.0 0.00 0.00 0.00 89 1027.1
20260509164523 50 295 0.0 0.0 0.00 0.00 0.00 89 1027.1
20260509164210 50 295 0.0 0.0 0.00 0.00 0.00 89 1027.1
20260509164110 50 295 0.0 0.0 0.00 0.00 0.00 89 1027.1
20260509164011 50 295 0.0 0.0 0.00 0.00 0.00 89 1027.2
20260509163910 50 295 0.0 0.0 0.00 0.00 0.00 89 1027.1
20260509163805 50 295 0.0 0.0 0.00 0.00 0.00 89 1027.1
20260509163701 50 295 0.0 0.0 0.00 0.00 0.00 89 1027.1
20260509163602 50 295 0.0 0.0 0.00 0.00 0.00 89 1027.1
20260509163500 50 295 0.0 0.0 0.00 0.00 0.00 89 1027.2
20260509163358 50 295 0.0 0.0 0.00 0.00 0.00 89 1027.1
20260509163300 50 295 0.0 1.0 0.00 0.00 0.00 89 1027.2
20260509163202 50 295 0.0 1.0 0.00 0.00 0.00 89 1027.1
20260509163059 50 295 0.0 1.0 0.00 0.00 0.00 89 1027.2
20260509162952 50 295 0.0 1.0 0.00 0.00 0.00 89 1027.1
20260509162853 50 295 0.0 1.0 0.00 0.00 0.00 89 1027.1
20260509162748 50 295 0.0 1.0 0.00 0.00 0.00 89 1027.2
20260509162637 50 295 0.0 1.0 0.00 0.00 0.00 89 1027.3
20260509162538 50 295 0.0 1.0 0.00 0.00 0.00 89 1027.1
20260509162503 50 295 0.0 1.0 0.00 0.00 0.00 89 1027.2
20260509162438 50 295 0.0 1.0 0.00 0.00 0.00 89 1027.2
20260509162401 50 295 0.0 1.0 0.00 0.00 0.00 89 1027.2
20260509162338 50 295 0.0 0.0 0.00 0.00 0.00 89 1027.2
20260509162315 50 295 0.0 0.0 0.00 0.00 0.00 89 1027.1
20260509162251 50 295 0.0 0.0 0.00 0.00 0.00 89 1027.2
20260509162153 50 295 0.0 1.0 0.00 0.00 0.00 89 1027.2
20260509161915 50 295 0.0 1.0 0.00 0.00 0.00 89 1027.2
20260509161637 50 295 0.0 1.0 0.00 0.00 0.00 89 1027.1
20260509161615 50 295 0.0 1.0 0.00 0.00 0.00 89 1027.1
20260509161555 50 295 0.0 1.0 0.00 0.00 0.00 89 1027.3
20260509161529 51 295 0.0 1.0 0.00 0.00 0.00 89 1027.3
20260509161237 51 295 0.0 1.0 0.00 0.00 0.00 89 1027.2
20260509161137 50 295 0.0 2.0 0.00 0.00 0.00 89 1027.2
20260509161039 51 295 0.0 2.0 0.00 0.00 0.00 89 1027.2
20260509160936 51 295 0.0 2.0 0.00 0.00 0.00 89 1027.2
20260509160838 51 295 0.0 2.0 0.00 0.00 0.00 89 1027.2
20260509160738 51 295 0.0 2.0 0.00 0.00 0.00 89 1027.2
20260509160636 51 295 0.0 2.0 0.00 0.00 0.00 89 1027.1
20260509160535 51 295 0.0 2.0 0.00 0.00 0.00 89 1027.3
20260509160436 51 295 1.0 2.0 0.00 0.00 0.00 89 1027.2
20260509160334 51 295 1.0 2.0 0.00 0.00 0.00 89 1027.2
20260509160234 51 295 0.0 2.0 0.00 0.00 0.00 89 1027.3
20260509160134 51 295 1.0 2.0 0.00 0.00 0.00 89 1027.2
20260509160024 51 295 1.0 2.0 0.00 0.00 0.00 89 1027.3
20260509155921 51 295 1.0 2.0 0.00 0.00 0.00 89 1027.2
20260509155715 51 295 1.0 2.0 0.00 0.00 0.00 89 1027.2
20260509155609 51 295 1.0 2.0 0.00 0.00 0.00 89 1027.2
20260509155512 51 295 1.0 2.0 0.00 0.00 0.00 89 1027.2
20260509155411 51 295 1.0 2.0 0.00 0.00 0.00 89 1027.2
20260509155229 51 295 1.0 2.0 0.00 0.00 0.00 89 1027.2
20260509155109 51 295 1.0 2.0 0.00 0.00 0.00 89 1027.2
20260509155011 51 295 0.0 2.0 0.00 0.00 0.00 89 1027.2
20260509154911 51 295 0.0 2.0 0.00 0.00 0.00 89 1027.2
20260509154713 51 295 0.0 2.0 0.00 0.00 0.00 89 1027.2
20260509154633 51 295 1.0 2.0 0.00 0.00 0.00 89 1027.2
20260509154613 51 295 1.0 2.0 0.00 0.00 0.00 89 1027.2
20260509154555 51 295 1.0 2.0 0.00 0.00 0.00 89 1027.2
20260509154524 51 295 1.0 2.0 0.00 0.00 0.00 89 1027.1
20260509154212 51 295 1.0 2.0 0.00 0.00 0.00 88 1027.3
20260509154113 51 295 1.0 2.0 0.00 0.00 0.00 88 1027.2
20260509154011 51 295 1.0 2.0 0.00 0.00 0.00 88 1027.3
20260509153910 51 294 0.0 2.0 0.00 0.00 0.00 88 1027.1
20260509153711 51 283 0.0 1.0 0.00 0.00 0.00 88 1027.2
20260509153611 51 283 0.0 1.0 0.00 0.00 0.00 88 1027.2
20260509153514 51 283 0.0 1.0 0.00 0.00 0.00 88 1027.3
20260509153412 51 283 0.0 1.0 0.00 0.00 0.00 88 1027.3
20260509153211 51 283 0.0 2.0 0.00 0.00 0.00 88 1027.3
20260509153111 51 283 0.0 2.0 0.00 0.00 0.00 88 1027.2
20260509153011 51 283 0.0 2.0 0.00 0.00 0.00 88 1027.3
20260509152909 51 283 0.0 2.0 0.00 0.00 0.00 88 1027.3
20260509152716 51 283 0.0 2.0 0.00 0.00 0.00 88 1027.3
20260509152611 51 283 1.0 2.0 0.00 0.00 0.00 88 1027.3
20260509152511 51 283 1.0 2.0 0.00 0.00 0.00 88 1027.3
20260509152411 51 283 1.0 2.0 0.00 0.00 0.00 88 1027.4
20260509152212 51 288 1.0 2.0 0.00 0.00 0.00 88 1027.3
20260509152114 51 288 1.0 2.0 0.00 0.00 0.00 88 1027.4
20260509152010 51 289 1.0 2.0 0.00 0.00 0.00 88 1027.4
20260509151914 51 288 1.0 2.0 0.00 0.00 0.00 88 1027.3
20260509151714 51 277 1.0 2.0 0.00 0.00 0.00 88 1027.4
20260509151614 51 277 1.0 2.0 0.00 0.00 0.00 88 1027.4
20260509151516 51 277 1.0 2.0 0.00 0.00 0.00 88 1027.4
20260509151413 51 270 0.0 2.0 0.00 0.00 0.00 88 1027.3
20260509151214 51 240 0.0 1.0 0.00 0.00 0.00 88 1027.3
20260509151110 51 240 0.0 1.0 0.00 0.00 0.00 88 1027.4
20260509151011 51 240 0.0 1.0 0.00 0.00 0.00 88 1027.4
20260509150912 51 240 0.0 0.0 0.00 0.00 0.00 88 1027.4
20260509150714 51 240 0.0 0.0 0.00 0.00 0.00 88 1027.3
20260509150613 51 240 0.0 0.0 0.00 0.00 0.00 88 1027.3
20260509150513 51 240 0.0 0.0 0.00 0.00 0.00 88 1027.3
20260509150415 51 240 0.0 0.0 0.00 0.00 0.00 88 1027.3
20260509150225 51 240 0.0 0.0 0.00 0.00 0.00 88 1027.3
20260509150110 51 240 0.0 0.0 0.00 0.00 0.00 88 1027.3
20260509150010 51 240 0.0 0.0 0.00 0.00 0.00 88 1027.4
20260509145909 51 240 0.0 0.0 0.00 0.00 0.00 88 1027.3
20260509145712 51 240 0.0 0.0 0.00 0.00 0.00 88 1027.4
20260509145608 51 240 0.0 0.0 0.00 0.00 0.00 88 1027.3
20260509145509 51 240 0.0 0.0 0.00 0.00 0.00 88 1027.2
20260509145411 51 240 0.0 0.0 0.00 0.00 0.00 87 1027.3
20260509145211 51 240 0.0 0.0 0.00 0.00 0.00 88 1027.3
20260509145131 51 240 0.0 0.0 0.00 0.00 0.00 88 1027.3
20260509145015 51 240 0.0 0.0 0.00 0.00 0.00 88 1027.2
20260509144955 51 240 0.0 0.0 0.00 0.00 0.00 88 1027.2
20260509144926 51 240 0.0 0.0 0.00 0.00 0.00 88 1027.3
20260509144715 51 240 0.0 0.0 0.00 0.00 0.00 88 1027.4
20260509144644 52 240 0.0 0.0 0.00 0.00 0.00 88 1027.3
20260509144620 52 240 0.0 0.0 0.00 0.00 0.00 87 1027.3
20260509144557 52 240 0.0 0.0 0.00 0.00 0.00 87 1027.2
20260509144529 52 240 0.0 0.0 0.00 0.00 0.00 87 1027.3
20260509144214 52 240 0.0 0.0 0.00 0.00 0.00 87 1027.3
20260509144109 52 240 0.0 0.0 0.00 0.00 0.00 87 1027.2
20260509144009 52 240 0.0 0.0 0.00 0.00 0.00 87 1027.3
20260509143912 52 240 0.0 0.0 0.00 0.00 0.00 87 1027.1
20260509143712 52 240 0.0 0.0 0.00 0.00 0.00 87 1027.2
20260509143612 52 240 0.0 0.0 0.00 0.00 0.00 87 1027.2
20260509143509 52 240 0.0 0.0 0.00 0.00 0.00 87 1027.2
20260509143402 52 240 0.0 0.0 0.00 0.00 0.00 87 1027.2
20260509143200 52 240 0.0 0.0 0.00 0.00 0.00 87 1027.3
20260509143054 52 240 0.0 0.0 0.00 0.00 0.00 87 1027.2
20260509142955 52 240 0.0 0.0 0.00 0.00 0.00 87 1027.2
20260509142854 52 240 0.0 0.0 0.00 0.00 0.00 87 1027.2
20260509142801 52 240 0.0 1.0 0.00 0.00 0.00 87 1027.2
20260509142643 52 240 0.0 1.0 0.00 0.00 0.00 87 1027.2
20260509142542 52 240 0.0 1.0 0.00 0.00 0.00 87 1027.1
20260509142439 52 240 0.0 1.0 0.00 0.00 0.00 87 1027.1
20260509142340 52 240 0.0 1.0 0.00 0.00 0.00 87 1027.1
20260509142237 52 240 0.0 1.0 0.00 0.00 0.00 87 1027.1
20260509142139 52 240 0.0 1.0 0.00 0.00 0.00 87 1027.1
20260509142039 52 240 0.0 1.0 0.00 0.00 0.00 87 1027.3
20260509141937 52 240 0.0 1.0 0.00 0.00 0.00 87 1027.2
20260509141839 52 240 0.0 1.0 0.00 0.00 0.00 87 1027.2
20260509141737 52 240 0.0 1.0 0.00 0.00 0.00 87 1027.2
20260509141639 52 240 0.0 1.0 0.00 0.00 0.00 87 1027.2
20260509141538 52 240 0.0 1.0 0.00 0.00 0.00 87 1027.2
20260509141439 52 240 0.0 1.0 0.00 0.00 0.00 87 1027.2
20260509141339 52 240 0.0 0.0 0.00 0.00 0.00 87 1027.1
20260509141247 52 240 0.0 0.0 0.00 0.00 0.00 87 1027.1
20260509141138 52 240 0.0 0.0 0.00 0.00 0.00 87 1027.1
20260509141113 52 240 0.0 0.0 0.00 0.00 0.00 87 1027.1
20260509141051 52 240 0.0 0.0 0.00 0.00 0.00 87 1027.2
20260509141031 52 240 0.0 0.0 0.00 0.00 0.00 87 1027.1
20260509140746 52 240 0.0 0.0 0.00 0.00 0.00 87 1027.1
20260509140637 52 240 0.0 0.0 0.00 0.00 0.00 87 1027.1
20260509140537 52 240 0.0 0.0 0.00 0.00 0.00 86 1027.1
20260509140440 52 240 0.0 0.0 0.00 0.00 0.00 86 1027.1
20260509140339 52 240 0.0 0.0 0.00 0.00 0.00 86 1027.2
20260509140242 52 240 0.0 0.0 0.00 0.00 0.00 86 1027.0
20260509140140 52 240 0.0 0.0 0.00 0.00 0.00 86 1027.1
20260509140039 52 240 0.0 0.0 0.00 0.00 0.00 86 1027.2
20260509135923 52 240 0.0 0.0 0.00 0.00 0.00 86 1027.1
20260509135826 52 240 0.0 0.0 0.00 0.00 0.00 86 1027.1
20260509135715 52 240 0.0 0.0 0.00 0.00 0.00 86 1027.1
20260509135618 52 240 0.0 0.0 0.00 0.00 0.00 86 1027.1
20260509135515 52 240 0.0 0.0 0.00 0.00 0.00 86 1027.1
20260509135410 52 240 0.0 0.0 0.00 0.00 0.00 86 1027.2
20260509135230 52 240 0.0 0.0 0.00 0.00 0.00 86 1027.2
20260509135157 52 240 0.0 0.0 0.00 0.00 0.00 86 1027.3
20260509135137 52 240 0.0 0.0 0.00 0.00 0.00 86 1027.2
20260509135118 52 240 0.0 0.0 0.00 0.00 0.00 86 1027.2
20260509135023 52 240 0.0 0.0 0.00 0.00 0.00 86 1027.2
20260509134712 52 240 0.0 0.0 0.00 0.00 0.00 86 1027.2
20260509134611 52 240 0.0 0.0 0.00 0.00 0.00 86 1027.2
20260509134508 52 240 0.0 0.0 0.00 0.00 0.00 86 1027.2
20260509134412 52 240 0.0 0.0 0.00 0.00 0.00 86 1027.2
20260509134212 53 240 0.0 0.0 0.00 0.00 0.00 86 1027.2
20260509134114 53 240 0.0 0.0 0.00 0.00 0.00 86 1027.2
20260509134014 53 240 0.0 1.0 0.00 0.00 0.00 86 1027.2
20260509133911 53 240 0.0 1.0 0.00 0.00 0.00 86 1027.3
20260509133758 53 240 0.0 1.0 0.00 0.00 0.00 86 1027.2
20260509133737 53 240 0.0 1.0 0.00 0.00 0.00 86 1027.3
20260509133712 53 240 0.0 1.0 0.00 0.00 0.00 86 1027.3
20260509133427 53 240 0.0 1.0 0.00 0.00 0.00 86 1027.2
20260509133324 53 240 0.0 1.0 0.00 0.00 0.00 86 1027.3
20260509133259 53 240 0.0 1.0 0.00 0.00 0.00 86 1027.2
20260509133236 53 240 0.0 0.0 0.00 0.00 0.00 86 1027.2
20260509133213 53 240 0.0 0.0 0.00 0.00 0.00 86 1027.3
20260509133151 53 240 0.0 0.0 0.00 0.00 0.00 86 1027.2
20260509132915 53 240 0.0 0.0 0.00 0.00 0.00 86 1027.2
20260509132635 53 240 0.0 0.0 0.00 0.00 0.00 86 1027.1
20260509132607 53 240 0.0 0.0 0.00 0.00 0.00 86 1027.2
20260509132545 53 240 0.0 0.0 0.00 0.00 0.00 86 1027.2
20260509132523 53 240 0.0 0.0 0.00 0.00 0.00 86 1027.2
20260509132216 53 240 0.0 1.0 0.00 0.00 0.00 86 1027.1
20260509132109 53 240 0.0 1.0 0.00 0.00 0.00 86 1027.2
20260509132009 53 240 0.0 1.0 0.00 0.00 0.00 86 1027.2
20260509131909 53 240 0.0 1.0 0.00 0.00 0.00 86 1027.2
20260509131711 53 240 0.0 1.0 0.00 0.00 0.00 86 1027.2
20260509131609 53 240 0.0 1.0 0.00 0.00 0.00 86 1027.2
20260509131510 53 240 0.0 1.0 0.00 0.00 0.00 86 1027.2
20260509131410 53 240 0.0 1.0 0.00 0.00 0.00 86 1027.2
20260509131215 53 240 0.0 0.0 0.00 0.00 0.00 86 1027.2
20260509131109 53 240 0.0 0.0 0.00 0.00 0.00 86 1027.3
20260509131014 53 240 0.0 0.0 0.00 0.00 0.00 86 1027.2
20260509130910 53 240 0.0 0.0 0.00 0.00 0.00 85 1027.2
20260509130717 53 240 0.0 0.0 0.00 0.00 0.00 85 1027.2
20260509130610 53 240 0.0 0.0 0.00 0.00 0.00 85 1027.2
20260509130511 53 240 0.0 0.0 0.00 0.00 0.00 85 1027.2
20260509130409 53 240 0.0 0.0 0.00 0.00 0.00 85 1027.2
20260509130223 53 240 0.0 0.0 0.00 0.00 0.00 85 1027.2
20260509130133 53 240 0.0 0.0 0.00 0.00 0.00 85 1027.2
20260509130111 53 240 0.0 0.0 0.00 0.00 0.00 85 1027.2
20260509130050 53 240 0.0 0.0 0.00 0.00 0.00 85 1027.3
20260509130027 53 240 0.0 0.0 0.00 0.00 0.00 85 1027.2
20260509125715 53 240 0.0 0.0 0.00 0.00 0.00 85 1027.2
20260509125629 53 240 0.0 0.0 0.00 0.00 0.00 85 1027.2
20260509125606 53 240 0.0 0.0 0.00 0.00 0.00 85 1027.2
20260509125545 53 240 0.0 0.0 0.00 0.00 0.00 85 1027.2
20260509125523 53 240 0.0 0.0 0.00 0.00 0.00 85 1027.2
20260509125212 53 240 0.0 0.0 0.00 0.00 0.00 85 1027.2
20260509125109 53 240 0.0 0.0 0.00 0.00 0.00 85 1027.1
20260509125010 53 240 0.0 0.0 0.00 0.00 0.00 85 1027.1
20260509124909 53 240 0.0 0.0 0.00 0.00 0.00 85 1027.2
20260509124716 53 240 0.0 1.0 0.00 0.00 0.00 85 1027.2
20260509124610 53 240 0.0 1.0 0.00 0.00 0.00 85 1027.1
20260509124511 53 240 0.0 1.0 0.00 0.00 0.00 85 1027.2
20260509124410 53 240 0.0 1.0 0.00 0.00 0.00 85 1027.3
20260509124210 53 240 0.0 1.0 0.00 0.00 0.00 85 1027.2
20260509124114 54 240 0.0 1.0 0.00 0.00 0.00 85 1027.2
20260509124011 54 240 0.0 1.0 0.00 0.00 0.00 85 1027.2
20260509123910 54 240 0.0 1.0 0.00 0.00 0.00 85 1027.2
20260509123710 54 269 0.0 1.0 0.00 0.00 0.00 85 1027.1
20260509123612 54 269 0.0 1.0 0.00 0.00 0.00 85 1027.2
20260509123508 54 269 0.0 0.0 0.00 0.00 0.00 85 1027.2
20260509123409 54 269 0.0 0.0 0.00 0.00 0.00 85 1027.1
20260509123211 54 269 0.0 0.0 0.00 0.00 0.00 85 1027.3
20260509123105 54 269 0.0 0.0 0.00 0.00 0.00 85 1027.2
20260509122956 54 269 0.0 0.0 0.00 0.00 0.00 85 1027.3
20260509122855 54 269 0.0 0.0 0.00 0.00 0.00 85 1027.3
20260509122754 54 269 0.0 0.0 0.00 0.00 0.00 85 1027.2
20260509122654 54 269 0.0 0.0 0.00 0.00 0.00 85 1027.3
20260509122550 54 269 0.0 0.0 0.00 0.00 0.00 85 1027.3
20260509122441 54 269 0.0 1.0 0.00 0.00 0.00 85 1027.3
20260509122338 54 269 0.0 1.0 0.00 0.00 0.00 85 1027.3
20260509122237 54 269 0.0 1.0 0.00 0.00 0.00 85 1027.3
20260509122138 54 269 0.0 1.0 0.00 0.00 0.00 85 1027.3
20260509122039 54 269 0.0 1.0 0.00 0.00 0.00 85 1027.3
20260509121941 54 269 0.0 1.0 0.00 0.00 0.00 85 1027.3
20260509121838 54 269 0.0 1.0 0.00 0.00 0.00 85 1027.3
20260509121737 54 269 0.0 1.0 0.00 0.00 0.00 85 1027.4
20260509121639 54 269 0.0 1.0 0.00 0.00 0.00 85 1027.3
20260509121538 54 269 0.0 1.0 0.00 0.00 0.00 85 1027.3
20260509121438 54 269 0.0 1.0 0.00 0.00 0.00 85 1027.3
20260509121342 54 269 0.0 1.0 0.00 0.00 0.00 85 1027.4
20260509121236 54 269 0.0 1.0 0.00 0.00 0.00 84 1027.3
20260509121138 54 269 0.0 1.0 0.00 0.00 0.00 84 1027.4
20260509121039 54 269 0.0 1.0 0.00 0.00 0.00 85 1027.3
20260509120943 54 269 0.0 1.0 0.00 0.00 0.00 85 1027.4
20260509120837 54 116 0.0 0.0 0.00 0.00 0.00 84 1027.4
20260509120738 54 116 0.0 0.0 0.00 0.00 0.00 84 1027.4
20260509120637 54 116 0.0 0.0 0.00 0.00 0.00 84 1027.3
20260509120537 54 116 0.0 0.0 0.00 0.00 0.00 84 1027.4
20260509120444 54 116 0.0 0.0 0.00 0.00 0.00 84 1027.4
20260509120337 54 116 0.0 0.0 0.00 0.00 0.00 84 1027.4
20260509120237 54 116 0.0 0.0 0.00 0.00 0.00 84 1027.4
20260509120141 54 116 0.0 0.0 0.00 0.00 0.00 84 1027.4
20260509120034 54 116 0.0 0.0 0.00 0.00 0.00 84 1027.3
20260509115933 54 116 0.0 0.0 0.00 0.00 0.00 84 1027.4
20260509115828 54 116 0.0 0.0 0.00 0.00 0.00 84 1027.3
20260509115727 54 116 0.0 0.0 0.00 0.00 0.00 84 1027.3
20260509115626 54 116 0.0 0.0 0.00 0.00 0.00 84 1027.4
20260509115525 54 116 0.0 0.0 0.00 0.00 0.00 84 1027.3
20260509115419 54 116 0.0 0.0 0.00 0.00 0.00 84 1027.3
20260509115322 54 116 0.0 0.0 0.00 0.00 0.00 84 1027.4
20260509115213 54 116 0.0 0.0 0.00 0.00 0.00 84 1027.4
20260509115111 54 116 0.0 0.0 0.00 0.00 0.00 84 1027.3
20260509115011 54 116 0.0 0.0 0.00 0.00 0.00 84 1027.3
20260509114938 54 116 0.0 0.0 0.00 0.00 0.00 84 1027.4
20260509114714 54 116 0.0 0.0 0.00 0.00 0.00 83 1027.3
20260509114645 54 116 0.0 0.0 0.00 0.00 0.00 83 1027.3
20260509114613 54 116 0.0 0.0 0.00 0.00 0.00 83 1027.4
20260509114549 54 116 0.0 0.0 0.00 0.00 0.00 83 1027.3
20260509114525 54 116 0.0 0.0 0.00 0.00 0.00 83 1027.3
20260509114210 54 116 0.0 0.0 0.00 0.00 0.00 83 1027.3
20260509114110 54 116 0.0 0.0 0.00 0.00 0.00 83 1027.4
20260509114010 54 116 0.0 0.0 0.00 0.00 0.00 83 1027.3
20260509113908 55 116 0.0 0.0 0.00 0.00 0.00 83 1027.3
20260509113812 55 116 0.0 0.0 0.00 0.00 0.00 83 1027.3
20260509113712 55 116 0.0 0.0 0.00 0.00 0.00 83 1027.2
20260509113610 55 116 0.0 0.0 0.00 0.00 0.00 83 1027.2
20260509113514 55 116 0.0 0.0 0.00 0.00 0.00 83 1027.3
20260509113413 55 116 0.0 0.0 0.00 0.00 0.00 83 1027.2
20260509113309 55 116 0.0 0.0 0.00 0.00 0.00 83 1027.2
20260509113213 55 116 0.0 0.0 0.00 0.00 0.00 83 1027.2
20260509113108 55 116 0.0 0.0 0.00 0.00 0.00 83 1027.2
20260509113000 55 116 0.0 0.0 0.00 0.00 0.00 83 1027.3
20260509112858 55 116 0.0 0.0 0.00 0.00 0.00 83 1027.2
20260509112757 55 116 0.0 0.0 0.00 0.00 0.00 83 1027.3
20260509112648 55 116 0.0 0.0 0.00 0.00 0.00 82 1027.2
20260509112605 55 116 0.0 0.0 0.00 0.00 0.00 82 1027.2
20260509112535 55 116 0.0 0.0 0.00 0.00 0.00 82 1027.2
20260509112516 55 116 0.0 0.0 0.00 0.00 0.00 82 1027.2
20260509112453 55 116 0.0 0.0 0.00 0.00 0.00 83 1027.3
20260509112138 55 116 0.0 0.0 0.00 0.00 0.00 82 1027.2
20260509112042 55 116 0.0 0.0 0.00 0.00 0.00 82 1027.2
20260509111940 55 116 0.0 0.0 0.00 0.00 0.00 82 1027.3
20260509111841 55 116 0.0 0.0 0.00 0.00 0.00 82 1027.2
20260509111640 55 116 0.0 0.0 0.00 0.00 0.00 82 1027.3
20260509111545 55 116 0.0 0.0 0.00 0.00 0.00 82 1027.3
20260509111438 55 116 0.0 0.0 0.00 0.00 0.00 82 1027.3
20260509111339 55 116 0.0 0.0 0.00 0.00 0.00 82 1027.2
20260509111210 55 116 0.0 0.0 0.00 0.00 0.00 82 1027.2
20260509111043 55 116 0.0 0.0 0.00 0.00 0.00 82 1027.2
20260509110939 55 116 0.0 0.0 0.00 0.00 0.00 82 1027.2
20260509110838 55 116 0.0 0.0 0.00 0.00 0.00 82 1027.2
20260509110638 55 116 0.0 0.0 0.00 0.00 0.00 81 1027.2
20260509110537 55 116 0.0 0.0 0.00 0.00 0.00 82 1027.2
20260509110439 55 116 0.0 0.0 0.00 0.00 0.00 82 1027.2
20260509110340 55 116 0.0 0.0 0.00 0.00 0.00 81 1027.1
20260509110237 55 116 0.0 0.0 0.00 0.00 0.00 81 1027.2
20260509110131 55 116 0.0 0.0 0.00 0.00 0.00 81 1027.2
20260509110032 55 116 0.0 0.0 0.00 0.00 0.00 81 1027.1
20260509105932 55 116 0.0 0.0 0.00 0.00 0.00 81 1027.2
20260509105826 55 116 0.0 0.0 0.00 0.00 0.00 81 1027.1
20260509105722 56 116 0.0 0.0 0.00 0.00 0.00 81 1027.1
20260509105614 56 116 0.0 0.0 0.00 0.00 0.00 81 1027.1
20260509105524 56 116 0.0 0.0 0.00 0.00 0.00 81 1027.3
20260509105410 56 116 0.0 0.0 0.00 0.00 0.00 81 1027.2
20260509105309 56 116 0.0 0.0 0.00 0.00 0.00 81 1027.2
20260509105211 56 116 0.0 0.0 0.00 0.00 0.00 80 1027.1
20260509105117 56 116 0.0 0.0 0.00 0.00 0.00 80 1027.2
20260509105101 56 116 0.0 0.0 0.00 0.00 0.00 80 1027.2
20260509105048 56 116 0.0 0.0 0.00 0.00 0.00 80 1027.1
20260509105019 56 116 0.0 0.0 0.00 0.00 0.00 80 1027.2
20260509104954 56 116 0.0 0.0 0.00 0.00 0.00 80 1027.2
20260509104921 56 116 0.0 0.0 0.00 0.00 0.00 80 1027.1
20260509104616 56 116 0.0 0.0 0.00 0.00 0.00 80 1027.2
20260509104549 56 116 0.0 0.0 0.00 0.00 0.00 80 1027.2
20260509104519 56 116 0.0 0.0 0.00 0.00 0.00 80 1027.1
20260509104457 56 116 0.0 0.0 0.00 0.00 0.00 80 1027.2
20260509104217 56 116 0.0 0.0 0.00 0.00 0.00 80 1027.1
20260509104113 56 116 0.0 0.0 0.00 0.00 0.00 80 1027.2
20260509104012 56 116 0.0 0.0 0.00 0.00 0.00 80 1027.1
20260509103911 56 116 0.0 0.0 0.00 0.00 0.00 80 1027.1
20260509103814 56 116 0.0 0.0 0.00 0.00 0.00 79 1027.1
20260509103715 56 116 0.0 0.0 0.00 0.00 0.00 79 1027.2
20260509103610 56 116 0.0 0.0 0.00 0.00 0.00 79 1027.2
20260509103509 56 116 0.0 0.0 0.00 0.00 0.00 79 1027.2
20260509103424 56 116 0.0 0.0 0.00 0.00 0.00 79 1027.2
20260509103309 56 116 0.0 0.0 0.00 0.00 0.00 79 1027.3
20260509103212 56 116 0.0 0.0 0.00 0.00 0.00 79 1027.2
20260509103113 56 116 0.0 0.0 0.00 0.00 0.00 79 1027.2
20260509103013 56 116 0.0 0.0 0.00 0.00 0.00 79 1027.2
20260509102909 56 116 0.0 0.0 0.00 0.00 0.00 79 1027.3
20260509102813 56 116 0.0 0.0 0.00 0.00 0.00 79 1027.2
20260509102712 56 116 0.0 0.0 0.00 0.00 0.00 79 1027.1
20260509102608 56 116 0.0 0.0 0.00 0.00 0.00 79 1027.1
20260509102510 56 116 0.0 0.0 0.00 0.00 0.00 78 1027.1
20260509102414 56 116 0.0 0.0 0.00 0.00 0.00 78 1027.2
20260509102312 56 116 0.0 0.0 0.00 0.00 0.00 78 1027.1
20260509102212 56 116 0.0 0.0 0.00 0.00 0.00 78 1027.1
20260509102110 57 116 0.0 0.0 0.00 0.00 0.00 78 1027.0
20260509102009 57 116 0.0 0.0 0.00 0.00 0.00 78 1027.0
20260509101915 57 116 0.0 0.0 0.00 0.00 0.00 78 1027.1
20260509101830 57 116 0.0 0.0 0.00 0.00 0.00 78 1027.1
20260509101712 57 116 0.0 1.0 0.00 0.00 0.00 78 1027.1
20260509101612 57 116 0.0 1.0 0.00 0.00 0.00 78 1027.1
20260509101512 57 116 0.0 1.0 0.00 0.00 0.00 78 1027.0
20260509101412 57 116 0.0 1.0 0.00 0.00 0.00 77 1027.1
20260509101316 57 116 0.0 1.0 0.00 0.00 0.00 77 1027.0
20260509101213 57 116 0.0 1.0 0.00 0.00 0.00 77 1027.1
20260509101110 57 116 0.0 1.0 0.00 0.00 0.00 77 1027.0
20260509101012 57 116 0.0 1.0 0.00 0.00 0.00 77 1027.0
20260509100909 57 116 0.0 1.0 0.00 0.00 0.00 77 1027.0
20260509100815 57 116 0.0 1.0 0.00 0.00 0.00 77 1027.0
20260509100714 57 116 0.0 1.0 0.00 0.00 0.00 77 1026.9
20260509100620 57 116 0.0 1.0 0.00 0.00 0.00 77 1026.9
20260509100559 57 116 0.0 1.0 0.00 0.00 0.00 77 1026.9
20260509100525 57 116 0.0 1.0 0.00 0.00 0.00 77 1026.8
20260509100502 57 116 0.0 1.0 0.00 0.00 0.00 77 1026.9
20260509100200 57 116 0.0 1.0 0.00 0.00 0.00 77 1026.8
20260509095959 57 116 0.0 1.0 0.00 0.00 0.00 77 1026.8
20260509095850 57 116 0.0 1.0 0.00 0.00 0.00 77 1027.0
20260509095650 57 116 0.0 1.0 0.00 0.00 0.00 76 1027.0
20260509095543 58 116 0.0 1.0 0.00 0.00 0.00 76 1026.9
20260509095441 58 116 0.0 1.0 0.00 0.00 0.00 76 1026.9
20260509095340 58 116 0.0 1.0 0.00 0.00 0.00 76 1026.8
20260509095141 58 116 0.0 0.0 0.00 0.00 0.00 76 1026.9
20260509095039 58 116 0.0 0.0 0.00 0.00 0.00 76 1026.8
20260509094942 58 116 0.0 0.0 0.00 0.00 0.00 76 1026.8
20260509094837 58 116 0.0 0.0 0.00 0.00 0.00 76 1026.9
20260509094642 58 116 0.0 0.0 0.00 0.00 0.00 75 1026.9
20260509094537 58 116 0.0 0.0 0.00 0.00 0.00 75 1026.8
20260509094442 58 116 0.0 0.0 0.00 0.00 0.00 75 1026.7
20260509094337 58 116 0.0 0.0 0.00 0.00 0.00 75 1026.8
20260509094141 58 116 0.0 0.0 0.00 0.00 0.00 75 1026.8
20260509094037 58 116 0.0 0.0 0.00 0.00 0.00 75 1026.8
20260509093939 58 116 0.0 0.0 0.00 0.00 0.00 75 1026.7
20260509093839 58 116 0.0 0.0 0.00 0.00 0.00 75 1026.7
20260509093636 58 116 0.0 0.0 0.00 0.00 0.00 75 1026.7
20260509093538 58 116 0.0 0.0 0.00 0.00 0.00 75 1026.7
20260509093441 58 116 0.0 0.0 0.00 0.00 0.00 74 1026.7
20260509093339 58 116 0.0 1.0 0.00 0.00 0.00 74 1026.7
20260509093137 58 116 0.0 1.0 0.00 0.00 0.00 74 1026.7
20260509093040 58 116 0.0 1.0 0.00 0.00 0.00 74 1026.7
20260509092938 58 116 0.0 1.0 0.00 0.00 0.00 74 1026.7
20260509092833 58 116 0.0 1.0 0.00 0.00 0.00 74 1026.8
20260509092729 59 116 0.0 1.0 0.00 0.00 0.00 74 1026.7
20260509092618 59 116 0.0 1.0 0.00 0.00 0.00 74 1026.6
20260509092516 59 116 0.0 1.0 0.00 0.00 0.00 74 1026.6
20260509092413 59 116 0.0 1.0 0.00 0.00 0.00 73 1026.6
20260509092312 59 116 0.0 0.0 0.00 0.00 0.00 73 1026.6
20260509092210 59 116 0.0 0.0 0.00 0.00 0.00 73 1026.6
20260509092109 59 116 0.0 0.0 0.00 0.00 0.00 74 1026.6
20260509092009 59 116 0.0 0.0 0.00 0.00 0.00 73 1026.6
20260509091910 59 116 0.0 0.0 0.00 0.00 0.00 73 1026.5
20260509091813 59 116 0.0 0.0 0.00 0.00 0.00 73 1026.6
20260509091713 59 116 0.0 0.0 0.00 0.00 0.00 73 1026.6
20260509091613 59 116 0.0 0.0 0.00 0.00 0.00 73 1026.5
20260509091511 59 116 0.0 0.0 0.00 0.00 0.00 73 1026.6
20260509091413 59 116 0.0 0.0 0.00 0.00 0.00 73 1026.7
20260509091312 59 116 0.0 0.0 0.00 0.00 0.00 73 1026.5
20260509091211 59 116 0.0 0.0 0.00 0.00 0.00 73 1026.5
20260509091112 59 116 0.0 0.0 0.00 0.00 0.00 73 1026.4
20260509091014 59 116 0.0 0.0 0.00 0.00 0.00 73 1026.5
20260509090910 59 116 0.0 0.0 0.00 0.00 0.00 72 1026.5
20260509090813 59 116 0.0 0.0 0.00 0.00 0.00 72 1026.5
20260509090711 59 116 0.0 0.0 0.00 0.00 0.00 73 1026.4
20260509090614 59 116 0.0 0.0 0.00 0.00 0.00 72 1026.4
20260509090513 60 116 0.0 0.0 0.00 0.00 0.00 72 1026.5
20260509090410 60 116 0.0 0.0 0.00 0.00 0.00 72 1026.4
20260509090310 60 116 0.0 0.0 0.00 0.00 0.00 72 1026.3
20260509090212 60 116 0.0 0.0 0.00 0.00 0.00 72 1026.3
20260509090106 60 116 0.0 0.0 0.00 0.00 0.00 72 1026.4
20260509090009 60 116 0.0 0.0 0.00 0.00 0.00 72 1026.4
20260509085907 60 116 0.0 0.0 0.00 0.00 0.00 72 1026.4
20260509085753 60 116 0.0 0.0 0.00 0.00 0.00 71 1026.3
20260509085652 60 116 0.0 0.0 0.00 0.00 0.00 71 1026.3
20260509085543 60 116 0.0 0.0 0.00 0.00 0.00 71 1026.3
20260509085438 60 116 0.0 0.0 0.00 0.00 0.00 71 1026.3
20260509085338 60 116 0.0 0.0 0.00 0.00 0.00 71 1026.3
20260509085238 60 116 0.0 0.0 0.00 0.00 0.00 70 1026.3
20260509085142 60 116 0.0 0.0 0.00 0.00 0.00 70 1026.3
20260509085039 60 116 0.0 0.0 0.00 0.00 0.00 70 1026.2
20260509084940 60 116 0.0 0.0 0.00 0.00 0.00 70 1026.3
20260509084839 60 116 0.0 0.0 0.00 0.00 0.00 70 1026.3
20260509084746 60 116 0.0 0.0 0.00 0.00 0.00 70 1026.2
20260509084642 60 116 0.0 0.0 0.00 0.00 0.00 70 1026.3
20260509084536 60 116 0.0 0.0 0.00 0.00 0.00 69 1026.2
20260509084436 60 116 0.0 0.0 0.00 0.00 0.00 69 1026.2
20260509084339 60 116 0.0 0.0 0.00 0.00 0.00 69 1026.2
20260509084239 60 116 0.0 0.0 0.00 0.00 0.00 69 1026.3
20260509084143 60 116 0.0 0.0 0.00 0.00 0.00 69 1026.2
20260509084040 60 116 0.0 0.0 0.00 0.00 0.00 68 1026.2
20260509083939 60 116 0.0 0.0 0.00 0.00 0.00 68 1026.3
20260509083840 60 116 0.0 0.0 0.00 0.00 0.00 68 1026.2
20260509083737 60 116 0.0 0.0 0.00 0.00 0.00 68 1026.2
20260509083639 60 116 0.0 0.0 0.00 0.00 0.00 68 1026.2
20260509083539 60 116 0.0 0.0 0.00 0.00 0.00 67 1026.1
20260509083438 60 116 0.0 0.0 0.00 0.00 0.00 67 1026.2
20260509083338 61 116 0.0 0.0 0.00 0.00 0.00 67 1026.2
20260509083237 61 116 0.0 0.0 0.00 0.00 0.00 67 1026.2
20260509083140 61 116 0.0 0.0 0.00 0.00 0.00 67 1026.1
20260509083035 61 116 0.0 0.0 0.00 0.00 0.00 67 1026.1
20260509082936 61 116 0.0 0.0 0.00 0.00 0.00 67 1026.0
20260509082830 61 116 0.0 0.0 0.00 0.00 0.00 67 1026.1
20260509082728 61 116 0.0 0.0 0.00 0.00 0.00 67 1026.0
20260509082623 61 116 0.0 0.0 0.00 0.00 0.00 67 1026.1
20260509082516 61 116 0.0 0.0 0.00 0.00 0.00 67 1026.0
20260509082413 61 116 0.0 0.0 0.00 0.00 0.00 67 1026.1
20260509082311 61 116 0.0 0.0 0.00 0.00 0.00 67 1026.1
20260509082112 61 116 0.0 0.0 0.00 0.00 0.00 67 1026.0
20260509082013 62 116 0.0 0.0 0.00 0.00 0.00 67 1026.0
20260509081911 62 116 0.0 0.0 0.00 0.00 0.00 67 1026.0
20260509081812 62 116 0.0 0.0 0.00 0.00 0.00 67 1026.0
20260509081610 62 116 0.0 0.0 0.00 0.00 0.00 67 1026.0
20260509081509 62 116 0.0 0.0 0.00 0.00 0.00 67 1025.9
20260509081412 62 116 0.0 0.0 0.00 0.00 0.00 67 1026.0
20260509081337 62 116 0.0 0.0 0.00 0.00 0.00 67 1025.9
20260509081235 62 116 0.0 0.0 0.00 0.00 0.00 66 1025.8
20260509081213 62 116 0.0 0.0 0.00 0.00 0.00 67 1025.8
20260509080909 62 116 0.0 0.0 0.00 0.00 0.00 66 1025.7
20260509080813 62 116 0.0 0.0 0.00 0.00 0.00 66 1025.7
20260509080731 62 116 0.0 0.0 0.00 0.00 0.00 66 1025.8
20260509080617 62 116 0.0 0.0 0.00 0.00 0.00 66 1025.6
20260509080509 62 116 0.0 0.0 0.00 0.00 0.00 66 1025.8
20260509080410 62 116 0.0 0.0 0.00 0.00 0.00 66 1025.8
20260509080314 62 116 0.0 0.0 0.00 0.00 0.00 66 1025.8
20260509080109 62 116 0.0 0.0 0.00 0.00 0.00 66 1025.8
20260509080004 63 116 0.0 0.0 0.00 0.00 0.00 66 1025.8
20260509075901 63 116 0.0 0.0 0.00 0.00 0.00 66 1025.8
20260509075756 63 116 0.0 0.0 0.00 0.00 0.00 66 1025.7
20260509075646 63 116 0.0 0.0 0.00 0.00 0.00 66 1025.8
20260509075542 63 116 0.0 0.0 0.00 0.00 0.00 66 1025.8
20260509075439 63 116 0.0 0.0 0.00 0.00 0.00 66 1025.7
20260509075339 63 116 0.0 1.0 0.00 0.00 0.00 66 1025.7
20260509075246 63 116 0.0 1.0 0.00 0.00 0.00 66 1025.7
20260509075136 63 116 0.0 1.0 0.00 0.00 0.00 66 1025.7
20260509075039 63 116 0.0 1.0 0.00 0.00 0.00 66 1025.7
20260509074938 63 116 0.0 1.0 0.00 0.00 0.00 66 1025.7
20260509074837 63 116 0.0 1.0 0.00 0.00 0.00 66 1025.6
20260509074743 63 116 0.0 1.0 0.00 0.00 0.00 66 1025.7
20260509074641 63 116 0.0 1.0 0.00 0.00 0.00 66 1025.6
20260509074540 63 116 0.0 1.0 0.00 0.00 0.00 66 1025.6
20260509074438 63 116 0.0 2.0 0.00 0.00 0.00 66 1025.6
20260509074337 63 116 0.0 2.0 0.00 0.00 0.00 66 1025.5
20260509074236 63 116 0.0 2.0 0.00 0.00 0.00 66 1025.5
20260509074139 64 116 0.0 2.0 0.00 0.00 0.00 66 1025.5
20260509074037 64 116 0.0 2.0 0.00 0.00 0.00 66 1025.4
20260509073939 64 116 0.0 2.0 0.00 0.00 0.00 65 1025.5
20260509073838 64 119 0.0 2.0 0.00 0.00 0.00 65 1025.5
20260509073740 64 119 0.0 2.0 0.00 0.00 0.00 65 1025.5
20260509073636 64 119 0.0 2.0 0.00 0.00 0.00 65 1025.4
20260509073538 64 114 0.0 4.0 0.00 0.00 0.00 65 1025.4
20260509073436 64 114 0.0 4.0 0.00 0.00 0.00 65 1025.4
20260509073340 64 118 0.0 4.0 0.00 0.00 0.00 65 1025.4
20260509073238 64 124 0.0 4.0 0.00 0.00 0.00 65 1025.5
20260509073138 64 99 0.0 4.0 0.00 0.00 0.00 65 1025.4
20260509073023 64 115 0.0 4.0 0.00 0.00 0.00 64 1025.3
20260509072918 64 115 1.0 4.0 0.00 0.00 0.00 64 1025.5
20260509072818 64 101 1.0 4.0 0.00 0.00 0.00 64 1025.4
20260509072728 64 101 0.0 4.0 0.00 0.00 0.00 64 1025.4
20260509072614 64 107 0.0 2.0 0.00 0.00 0.00 64 1025.4
20260509072538 64 111 0.0 1.0 0.00 0.00 0.00 64 1025.4
20260509072520 65 111 0.0 1.0 0.00 0.00 0.00 64 1025.4
20260509072458 65 111 0.0 1.0 0.00 0.00 0.00 64 1025.4
20260509072432 65 116 0.0 4.0 0.00 0.00 0.00 63 1025.3
20260509072111 65 116 0.0 4.0 0.00 0.00 0.00 63 1025.4
20260509072013 65 119 0.0 4.0 0.00 0.00 0.00 63 1025.3
20260509071912 65 110 0.0 4.0 0.00 0.00 0.00 63 1025.4
20260509071813 65 110 0.0 4.0 0.00 0.00 0.00 63 1025.4
20260509071610 65 110 0.0 4.0 0.00 0.00 0.00 63 1025.3
20260509071511 65 113 1.0 4.0 0.00 0.00 0.00 63 1025.4
20260509071409 65 101 1.0 4.0 0.00 0.00 0.00 63 1025.3
20260509071312 65 101 1.0 4.0 0.00 0.00 0.00 63 1025.4
20260509071109 65 108 0.0 4.0 0.00 0.00 0.00 62 1025.3
20260509071013 65 131 1.0 4.0 0.00 0.00 0.00 62 1025.3
20260509070913 65 131 2.0 4.0 0.00 0.00 0.00 62 1025.3
20260509070814 65 109 2.0 4.0 0.00 0.00 0.00 62 1025.3
20260509070612 65 94 1.0 4.0 0.00 0.00 0.00 62 1025.3
20260509070511 65 111 2.0 4.0 0.00 0.00 0.00 62 1025.3
20260509070409 66 103 1.0 4.0 0.00 0.00 0.00 61 1025.1
20260509070309 66 102 1.0 4.0 0.00 0.00 0.00 61 1025.1
20260509070223 66 98 1.0 4.0 0.00 0.00 0.00 61 1025.2
20260509070109 66 126 1.0 4.0 0.00 0.00 0.00 61 1025.0
20260509070011 66 113 0.0 4.0 0.00 0.00 0.00 61 1025.1
20260509065912 66 94 0.0 4.0 0.00 0.00 0.00 61 1025.0
20260509065817 66 111 0.0 4.0 0.00 0.00 0.00 61 1025.1
20260509065717 66 111 0.0 4.0 0.00 0.00 0.00 61 1025.0
20260509065613 66 108 0.0 4.0 0.00 0.00 0.00 61 1025.0
20260509065452 66 108 2.0 4.0 0.00 0.00 0.00 61 1024.9
20260509065344 66 106 2.0 4.0 0.00 0.00 0.00 61 1024.9
20260509065239 66 88 2.0 4.0 0.00 0.00 0.00 61 1024.9
20260509065137 66 111 2.0 6.0 0.00 0.00 0.00 61 1024.8
20260509065040 66 107 0.0 6.0 0.00 0.00 0.00 61 1024.8
20260509064939 66 154 0.0 6.0 0.00 0.00 0.00 61 1024.8
20260509064840 66 130 0.0 6.0 0.00 0.00 0.00 61 1024.8
20260509064739 66 142 0.0 6.0 0.00 0.00 0.00 61 1024.7
20260509064645 66 119 0.0 6.0 0.00 0.00 0.00 61 1024.8
20260509064537 66 134 0.0 6.0 0.00 0.00 0.00 61 1024.8
20260509064439 66 115 0.0 6.0 0.00 0.00 0.00 61 1024.7
20260509064343 66 115 2.0 6.0 0.00 0.00 0.00 61 1024.8
20260509064240 66 109 2.0 6.0 0.00 0.00 0.00 61 1024.7
20260509064140 66 113 1.0 4.0 0.00 0.00 0.00 61 1024.7
20260509064037 66 112 0.0 3.0 0.00 0.00 0.00 60 1024.7
20260509063940 66 105 0.0 3.0 0.00 0.00 0.00 60 1024.7
20260509063839 67 105 1.0 3.0 0.00 0.00 0.00 60 1024.6
20260509063736 67 105 1.0 3.0 0.00 0.00 0.00 60 1024.6
20260509063642 67 122 1.0 3.0 0.00 0.00 0.00 60 1024.6
20260509063537 67 109 1.0 3.0 0.00 0.00 0.00 60 1024.6
20260509063442 67 123 1.0 3.0 0.00 0.00 0.00 60 1024.6
20260509063336 67 150 0.0 3.0 0.00 0.00 0.00 60 1024.6
20260509063238 67 114 0.0 5.0 0.00 0.00 0.00 60 1024.6
20260509063137 67 128 0.0 8.0 0.00 0.00 0.00 59 1024.6
20260509063038 67 119 0.0 8.0 0.00 0.00 0.00 59 1024.6
20260509062940 67 119 0.0 8.0 0.00 0.00 0.00 59 1024.6
20260509062837 67 138 0.0 8.0 0.00 0.00 0.00 59 1024.6
20260509062727 67 121 1.0 8.0 0.00 0.00 0.00 59 1024.6
20260509062623 67 104 1.0 8.0 0.00 0.00 0.00 59 1024.7
20260509062518 67 123 0.0 8.0 0.00 0.00 0.00 59 1024.7
20260509062419 67 119 3.0 8.0 0.00 0.00 0.00 59 1024.6
20260509062316 67 163 2.0 8.0 0.00 0.00 0.00 59 1024.6
20260509062209 67 170 0.0 8.0 0.00 0.00 0.00 59 1024.6
20260509062112 67 162 0.0 7.0 0.00 0.00 0.00 59 1024.6
20260509062009 67 154 0.0 7.0 0.00 0.00 0.00 59 1024.6
20260509061909 67 130 1.0 7.0 0.00 0.00 0.00 59 1024.6
20260509061813 68 109 1.0 7.0 0.00 0.00 0.00 59 1024.5
20260509061712 68 150 2.0 7.0 0.00 0.00 0.00 59 1024.6
20260509061617 68 138 3.0 7.0 0.00 0.00 0.00 59 1024.5
20260509061510 68 129 2.0 7.0 0.00 0.00 0.00 59 1024.6
20260509061411 68 130 2.0 8.0 0.00 0.00 0.00 59 1024.6
20260509061315 68 122 1.0 8.0 0.00 0.00 0.00 59 1024.5
20260509061209 68 135 1.0 8.0 0.00 0.00 0.00 59 1024.6
20260509061117 68 123 2.0 8.0 0.00 0.00 0.00 58 1024.5
20260509061030 68 126 3.0 8.0 0.00 0.00 0.00 58 1024.5
20260509061008 68 105 2.0 8.0 0.00 0.00 0.00 58 1024.5
20260509060948 68 114 1.0 8.0 0.00 0.00 0.00 58 1024.4
20260509060920 68 144 2.0 8.0 0.00 0.00 0.00 58 1024.5
20260509060611 68 185 3.0 8.0 0.00 0.00 0.00 58 1024.4
20260509060505 68 185 4.0 8.0 0.00 0.00 0.00 58 1024.4
20260509060359 68 104 5.0 8.0 0.00 0.00 0.00 58 1024.5
20260509060305 68 149 4.0 8.0 0.00 0.00 0.00 57 1024.5
20260509060243 68 160 3.0 8.0 0.00 0.00 0.00 57 1024.4
20260509060200 68 109 4.0 8.0 0.00 0.00 0.00 57 1024.5
20260509060138 68 113 2.0 7.0 0.00 0.00 0.00 57 1024.5
20260509060116 68 114 2.0 7.0 0.00 0.00 0.00 56 1024.4
20260509060051 68 83 1.0 7.0 0.00 0.00 0.00 56 1024.4
20260509060030 68 154 1.0 7.0 0.00 0.00 0.00 55 1024.4
20260509055743 68 130 3.0 10.0 0.00 0.00 0.00 55 1024.4
20260509055510 68 108 3.0 10.0 0.00 0.00 0.00 55 1024.4
20260509055446 68 79 2.0 10.0 0.00 0.00 0.00 55 1024.3
20260509055422 68 146 2.0 10.0 0.00 0.00 0.00 56 1024.4
20260509055357 68 110 1.0 10.0 0.00 0.00 0.00 55 1024.3
20260509055037 68 101 0.0 10.0 0.00 0.00 0.00 55 1024.4
20260509054938 68 169 0.0 10.0 0.00 0.00 0.00 55 1024.4
20260509054839 69 121 3.0 10.0 0.00 0.00 0.00 55 1024.2
20260509054742 69 111 3.0 10.0 0.00 0.00 0.00 55 1024.3
20260509054540 69 155 2.0 7.0 0.00 0.00 0.00 55 1024.3
20260509054448 69 154 1.0 7.0 0.00 0.00 0.00 55 1024.4
20260509054341 69 186 1.0 7.0 0.00 0.00 0.00 55 1024.4
20260509054238 69 167 1.0 7.0 0.00 0.00 0.00 55 1024.3
20260509054043 69 193 2.0 7.0 0.00 0.00 0.00 55 1024.3
20260509053941 69 136 3.0 7.0 0.00 0.00 0.00 55 1024.2
20260509053841 69 94 3.0 7.0 0.00 0.00 0.00 55 1024.3
20260509053738 69 170 3.0 7.0 0.00 0.00 0.00 55 1024.3
20260509053538 69 111 2.0 8.0 0.00 0.00 0.00 55 1024.2
20260509053443 69 150 3.0 8.0 0.00 0.00 0.00 55 1024.2
20260509053341 69 116 2.0 8.0 0.00 0.00 0.00 54 1024.3
20260509053241 69 105 2.0 8.0 0.00 0.00 0.00 55 1024.2
20260509053044 69 115 2.0 8.0 0.00 0.00 0.00 54 1024.3
20260509052938 69 122 2.0 8.0 0.00 0.00 0.00 55 1024.3
20260509052838 69 148 3.0 8.0 0.00 0.00 0.00 55 1024.2
20260509052736 69 95 2.0 8.0 0.00 0.00 0.00 55 1024.2
20260509052635 69 142 2.0 8.0 0.00 0.00 0.00 55 1024.3
20260509052539 69 121 4.0 9.0 0.00 0.00 0.00 55 1024.2
20260509052427 69 153 4.0 9.0 0.00 0.00 0.00 55 1024.2
20260509052320 69 175 4.0 9.0 0.00 0.00 0.00 54 1024.2
20260509052216 69 155 4.0 9.0 0.00 0.00 0.00 54 1024.3
20260509052116 69 104 2.0 9.0 0.00 0.00 0.00 54 1024.2
20260509052014 69 178 2.0 9.0 0.00 0.00 0.00 55 1024.2
20260509051915 69 161 6.0 9.0 0.00 0.00 0.00 54 1024.1
20260509051811 69 110 6.0 9.0 0.00 0.00 0.00 54 1024.2
20260509051709 69 112 5.0 9.0 0.00 0.00 0.00 54 1024.1
20260509051613 69 103 4.0 9.0 0.00 0.00 0.00 54 1024.1
20260509051540 69 128 5.0 9.0 0.00 0.00 0.00 54 1024.2
20260509051515 69 164 4.0 9.0 0.00 0.00 0.00 54 1024.2
20260509051451 69 128 4.0 9.0 0.00 0.00 0.00 54 1024.2
20260509051433 69 95 3.0 9.0 0.00 0.00 0.00 54 1024.1
20260509051110 69 146 3.0 9.0 0.00 0.00 0.00 53 1024.1
20260509051011 70 153 3.0 9.0 0.00 0.00 0.00 53 1024.2
20260509050911 70 109 4.0 9.0 0.00 0.00 0.00 53 1024.1
20260509050812 70 117 6.0 9.0 0.00 0.00 0.00 53 1024.1
20260509050709 70 117 4.0 9.0 0.00 0.00 0.00 52 1024.1
20260509050609 70 121 3.0 9.0 0.00 0.00 0.00 52 1024.1
20260509050510 70 104 2.0 9.0 0.00 0.00 0.00 53 1024.1
20260509050409 70 149 2.0 9.0 0.00 0.00 0.00 52 1024.2
20260509050311 70 99 2.0 7.0 0.00 0.00 0.00 52 1024.1
20260509050212 70 157 2.0 7.0 0.00 0.00 0.00 52 1024.1
20260509050111 70 225 1.0 7.0 0.00 0.00 0.00 52 1024.1
20260509050022 70 121 2.0 7.0 0.00 0.00 0.00 52 1024.1
20260509045909 70 172 4.0 7.0 0.00 0.00 0.00 52 1024.1
20260509045814 70 148 3.0 7.0 0.00 0.00 0.00 53 1024.1
20260509045709 71 115 3.0 7.0 0.00 0.00 0.00 52 1024.1
20260509045610 71 128 3.0 7.0 0.00 0.00 0.00 52 1024.1
20260509045517 71 154 2.0 7.0 0.00 0.00 0.00 52 1024.1
20260509045401 71 149 1.0 8.0 0.00 0.00 0.00 53 1024.1
20260509045254 71 177 2.0 8.0 0.00 0.00 0.00 53 1024.1
20260509045155 70 110 2.0 8.0 0.00 0.00 0.00 52 1024.0
20260509045049 70 125 2.0 8.0 0.00 0.00 0.00 53 1024.0
20260509044956 70 120 1.0 8.0 0.00 0.00 0.00 52 1024.0
20260509044935 70 170 1.0 8.0 0.00 0.00 0.00 53 1024.0
20260509044914 70 143 2.0 8.0 0.00 0.00 0.00 53 1024.1
20260509044851 70 134 3.0 8.0 0.00 0.00 0.00 52 1024.1
20260509044545 70 128 2.0 8.0 0.00 0.00 0.00 52 1024.0
20260509044520 70 105 1.0 7.0 0.00 0.00 0.00 52 1024.1
20260509044457 70 104 2.0 7.0 0.00 0.00 0.00 51 1024.0
20260509044437 71 140 2.0 7.0 0.00 0.00 0.00 51 1024.0
20260509044345 71 125 3.0 7.0 0.00 0.00 0.00 51 1024.0
20260509044037 71 150 2.0 7.0 0.00 0.00 0.00 51 1024.0
20260509043938 71 180 1.0 7.0 0.00 0.00 0.00 52 1024.0
20260509043838 71 172 2.0 7.0 0.00 0.00 0.00 51 1024.0
20260509043738 71 209 3.0 7.0 0.00 0.00 0.00 51 1024.0
20260509043638 71 188 3.0 7.0 0.00 0.00 0.00 51 1024.0
20260509043537 71 189 2.0 7.0 0.00 0.00 0.00 50 1024.1
20260509043436 71 204 2.0 7.0 0.00 0.00 0.00 50 1024.0
20260509043336 71 223 3.0 7.0 0.00 0.00 0.00 50 1023.9
20260509043238 71 174 3.0 7.0 0.00 0.00 0.00 50 1024.0
20260509043136 71 101 4.0 7.0 0.00 0.00 0.00 50 1024.0
20260509043037 71 135 3.0 8.0 0.00 0.00 0.00 49 1024.1
20260509042937 71 200 4.0 8.0 0.00 0.00 0.00 49 1024.0
20260509042838 71 205 4.0 8.0 0.00 0.00 0.00 50 1024.0
20260509042737 71 153 4.0 8.0 0.00 0.00 0.00 50 1024.0
20260509042637 71 168 2.0 8.0 0.00 0.00 0.00 50 1024.0
20260509042535 71 184 2.0 8.0 0.00 0.00 0.00 49 1023.9
20260509042433 71 125 4.0 8.0 0.00 0.00 0.00 49 1024.0
20260509042327 71 107 5.0 8.0 0.00 0.00 0.00 48 1024.0
20260509042227 71 91 3.0 8.0 0.00 0.00 0.00 49 1023.9
20260509042124 71 109 1.0 7.0 0.00 0.00 0.00 50 1024.0
20260509042019 71 107 2.0 7.0 0.00 0.00 0.00 51 1024.0
20260509041916 70 148 2.0 7.0 0.00 0.00 0.00 51 1024.1
20260509041816 70 121 2.0 7.0 0.00 0.00 0.00 50 1024.1
20260509041713 71 190 1.0 7.0 0.00 0.00 0.00 49 1024.1
20260509041510 71 157 0.0 7.0 0.00 0.00 0.00 49 1024.0
20260509041410 71 117 2.0 7.0 0.00 0.00 0.00 49 1024.2
20260509041310 71 117 3.0 8.0 0.00 0.00 0.00 49 1024.2
20260509041209 71 126 2.0 9.0 0.00 0.00 0.00 49 1023.9
20260509041148 71 132 2.0 9.0 0.00 0.00 0.00 50 1024.1
20260509041010 71 162 3.0 9.0 0.00 0.00 0.00 50 1024.0
20260509040909 71 163 3.0 9.0 0.00 0.00 0.00 50 1024.1
20260509040811 71 170 3.0 9.0 0.00 0.00 0.00 50 1024.0
20260509040709 71 171 2.0 9.0 0.00 0.00 0.00 49 1024.0
20260509040617 71 93 4.0 9.0 0.00 0.00 0.00 49 1024.1
20260509040508 71 82 5.0 9.0 0.00 0.00 0.00 49 1024.0
20260509040410 71 65 4.0 9.0 0.00 0.00 0.00 49 1024.1
20260509040309 71 109 2.0 9.0 0.00 0.00 0.00 49 1024.0
20260509040208 71 76 3.0 8.0 0.00 0.00 0.00 50 1024.0
20260509040119 71 101 3.0 8.0 0.00 0.00 0.00 50 1024.0
20260509040009 71 47 3.0 8.0 0.00 0.00 0.00 50 1024.0
20260509035910 71 98 2.0 8.0 0.00 0.00 0.00 50 1024.0
20260509035814 71 87 2.0 8.0 0.00 0.00 0.00 50 1024.1
20260509035710 71 59 4.0 8.0 0.00 0.00 0.00 51 1024.0
20260509035616 70 64 4.0 8.0 0.00 0.00 0.00 50 1024.0
20260509035511 70 107 3.0 8.0 0.00 0.00 0.00 50 1023.9
20260509035409 71 100 4.0 8.0 0.00 0.00 0.00 50 1024.0
20260509035309 71 114 3.0 8.0 0.00 0.00 0.00 50 1024.1
20260509035210 71 126 4.0 8.0 0.00 0.00 0.00 50 1024.0
20260509035113 71 132 5.0 8.0 0.00 0.00 0.00 50 1024.0
20260509035010 71 156 4.0 8.0 0.00 0.00 0.00 50 1024.1
20260509034909 71 153 3.0 8.0 0.00 0.00 0.00 50 1024.0
20260509034811 71 80 1.0 6.0 0.00 0.00 0.00 50 1024.0
20260509034709 71 105 0.0 6.0 0.00 0.00 0.00 50 1024.0
20260509034613 71 173 0.0 7.0 0.00 0.00 0.00 50 1023.9
20260509034513 71 184 1.0 7.0 0.00 0.00 0.00 50 1023.9
20260509034444 71 184 2.0 9.0 0.00 0.00 0.00 50 1024.0
20260509034425 71 185 3.0 9.0 0.00 0.00 0.00 50 1024.0
20260509034406 71 178 3.0 9.0 0.00 0.00 0.00 50 1024.0
20260509034342 71 156 2.0 9.0 0.00 0.00 0.00 51 1024.1
20260509034009 71 172 2.0 9.0 0.00 0.00 0.00 50 1024.0
20260509033910 71 122 3.0 9.0 0.00 0.00 0.00 50 1024.1
20260509033812 71 98 3.0 10.0 0.00 0.00 0.00 49 1024.1
20260509033709 71 110 5.0 10.0 0.00 0.00 0.00 50 1024.1
20260509033612 71 103 6.0 10.0 0.00 0.00 0.00 49 1024.1
20260509033509 71 100 4.0 10.0 0.00 0.00 0.00 50 1024.1
20260509033418 71 111 2.0 10.0 0.00 0.00 0.00 50 1024.1
20260509033309 71 126 2.0 10.0 0.00 0.00 0.00 50 1024.0
20260509033210 71 105 2.0 10.0 0.00 0.00 0.00 50 1024.1
20260509033110 71 103 3.0 10.0 0.00 0.00 0.00 50 1024.2
20260509033009 71 188 5.0 10.0 0.00 0.00 0.00 49 1024.1
20260509032927 71 190 4.0 10.0 0.00 0.00 0.00 50 1024.2
20260509032859 71 147 4.0 8.0 0.00 0.00 0.00 50 1024.1
20260509032839 71 103 3.0 7.0 0.00 0.00 0.00 49 1024.1
20260509032819 71 92 3.0 7.0 0.00 0.00 0.00 49 1024.2
20260509032508 71 123 2.0 7.0 0.00 0.00 0.00 49 1024.2
20260509032415 71 112 1.0 7.0 0.00 0.00 0.00 50 1024.2
20260509032310 71 113 0.0 7.0 0.00 0.00 0.00 50 1024.3
20260509032212 71 145 0.0 7.0 0.00 0.00 0.00 49 1024.2
20260509032112 71 202 2.0 7.0 0.00 0.00 0.00 49 1024.2
20260509032011 71 202 2.0 7.0 0.00 0.00 0.00 49 1024.2
20260509031911 72 212 2.0 7.0 0.00 0.00 0.00 47 1024.3
20260509031804 72 198 4.0 7.0 0.00 0.00 0.00 46 1024.3
20260509031702 72 217 4.0 7.0 0.00 0.00 0.00 45 1024.4
20260509031557 72 200 2.0 6.0 0.00 0.00 0.00 45 1024.3
20260509031450 72 162 1.0 5.0 0.00 0.00 0.00 46 1024.3
20260509031349 72 151 1.0 5.0 0.00 0.00 0.00 46 1024.3
20260509031240 71 57 0.0 5.0 0.00 0.00 0.00 45 1024.2
20260509031139 71 103 0.0 5.0 0.00 0.00 0.00 46 1024.3
20260509031059 71 242 0.0 5.0 0.00 0.00 0.00 47 1024.1
20260509030939 71 214 0.0 6.0 0.00 0.00 0.00 47 1024.3
20260509030837 71 213 0.0 6.0 0.00 0.00 0.00 47 1024.3
20260509030740 71 213 1.0 6.0 0.00 0.00 0.00 47 1024.3
20260509030643 71 213 2.0 6.0 0.00 0.00 0.00 47 1024.3
20260509030538 71 210 2.0 6.0 0.00 0.00 0.00 47 1024.3
20260509030438 70 180 2.0 6.0 0.00 0.00 0.00 49 1024.3
20260509030338 70 120 2.0 6.0 0.00 0.00 0.00 47 1024.2
20260509030239 70 107 2.0 6.0 0.00 0.00 0.00 47 1024.4
20260509030139 70 104 3.0 6.0 0.00 0.00 0.00 47 1024.4
20260509030041 70 103 2.0 6.0 0.00 0.00 0.00 48 1024.3
20260509025938 70 122 1.0 4.0 0.00 0.00 0.00 48 1024.4
20260509025837 70 150 1.0 4.0 0.00 0.00 0.00 47 1024.3
20260509025738 70 150 1.0 4.0 0.00 0.00 0.00 47 1024.4
20260509025638 71 153 2.0 5.0 0.00 0.00 0.00 47 1024.4
20260509025537 71 163 1.0 5.0 0.00 0.00 0.00 47 1024.4
20260509025438 71 94 1.0 5.0 0.00 0.00 0.00 47 1024.4
20260509025338 71 352 1.0 5.0 0.00 0.00 0.00 47 1024.4
20260509025237 71 335 0.0 5.0 0.00 0.00 0.00 47 1024.4
20260509025138 71 182 2.0 7.0 0.00 0.00 0.00 47 1024.4
20260509025038 71 182 2.0 7.0 0.00 0.00 0.00 48 1024.5
20260509024944 70 188 1.0 7.0 0.00 0.00 0.00 48 1024.5
20260509024910 70 238 3.0 7.0 0.00 0.00 0.00 49 1024.5
20260509024833 70 219 3.0 7.0 0.00 0.00 0.00 48 1024.5
20260509024810 70 194 1.0 7.0 0.00 0.00 0.00 48 1024.6
20260509024527 70 111 0.0 7.0 0.00 0.00 0.00 47 1024.6
20260509024424 71 159 3.0 7.0 0.00 0.00 0.00 48 1024.5
20260509024315 71 162 2.0 7.0 0.00 0.00 0.00 49 1024.6
20260509024215 70 116 1.0 7.0 0.00 0.00 0.00 49 1024.6
20260509024117 70 62 1.0 3.0 0.00 0.00 0.00 48 1024.6
20260509024040 70 62 1.0 5.0 0.00 0.00 0.00 48 1024.7
20260509023910 70 86 0.0 6.0 0.00 0.00 0.00 50 1024.7
20260509023816 70 5 1.0 9.0 0.00 0.00 0.00 49 1024.7
20260509023711 70 5 1.0 9.0 0.00 0.00 0.00 48 1024.7
20260509023610 70 32 1.0 9.0 0.00 0.00 0.00 48 1024.8
20260509023510 70 125 0.0 9.0 0.00 0.00 0.00 48 1024.6
20260509023409 70 94 0.0 9.0 0.00 0.00 0.00 49 1024.7
20260509023310 70 162 2.0 9.0 0.00 0.00 0.00 48 1024.7
20260509023211 70 162 4.0 9.0 0.00 0.00 0.00 48 1024.8
20260509023109 70 161 4.0 9.0 0.00 0.00 0.00 48 1024.8
20260509023010 70 200 3.0 9.0 0.00 0.00 0.00 49 1024.8
20260509022910 70 152 1.0 9.0 0.00 0.00 0.00 49 1024.8
20260509022813 70 158 1.0 5.0 0.00 0.00 0.00 48 1024.9
20260509022708 71 146 0.0 5.0 0.00 0.00 0.00 48 1024.9
20260509022608 71 227 0.0 5.0 0.00 0.00 0.00 49 1024.9
20260509022509 70 65 1.0 5.0 0.00 0.00 0.00 49 1024.8
20260509022411 70 289 2.0 5.0 0.00 0.00 0.00 50 1024.9
20260509022341 70 254 2.0 5.0 0.00 0.00 0.00 50 1024.8
20260509022323 70 250 2.0 5.0 0.00 0.00 0.00 50 1024.9
20260509022301 70 169 2.0 6.0 0.00 0.00 0.00 49 1025.0
20260509021959 70 188 1.0 6.0 0.00 0.00 0.00 50 1024.9
20260509021859 70 221 1.0 6.0 0.00 0.00 0.00 49 1024.9
20260509021755 70 262 2.0 6.0 0.00 0.00 0.00 50 1025.0
20260509021653 69 231 2.0 6.0 0.00 0.00 0.00 51 1024.9
20260509021552 69 279 0.0 6.0 0.00 0.00 0.00 52 1024.9
20260509021450 69 186 0.0 6.0 0.00 0.00 0.00 51 1025.0
20260509021346 69 155 1.0 6.0 0.00 0.00 0.00 51 1025.0
20260509021242 68 165 2.0 6.0 0.00 0.00 0.00 51 1025.1
20260509021138 68 200 2.0 6.0 0.00 0.00 0.00 50 1025.0
20260509021058 68 196 2.0 6.0 0.00 0.00 0.00 50 1025.1
20260509020938 68 177 3.0 6.0 0.00 0.00 0.00 50 1025.0
20260509020840 69 192 4.0 6.0 0.00 0.00 0.00 50 1025.0
20260509020739 69 195 3.0 6.0 0.00 0.00 0.00 50 1025.2
20260509020639 69 194 2.0 6.0 0.00 0.00 0.00 51 1025.1
20260509020437 69 258 1.0 6.0 0.00 0.00 0.00 51 1025.1
20260509020337 69 243 3.0 6.0 0.00 0.00 0.00 51 1025.1
20260509020238 69 172 3.0 6.0 0.00 0.00 0.00 49 1025.1
20260509020138 69 191 2.0 6.0 0.00 0.00 0.00 50 1025.2
20260509015942 69 203 1.0 8.0 0.00 0.00 0.00 52 1025.3
20260509015916 69 277 2.0 9.0 0.00 0.00 0.00 52 1025.3
20260509015844 68 276 3.0 9.0 0.00 0.00 0.00 53 1025.2
20260509015823 68 250 3.0 9.0 0.00 0.00 0.00 51 1025.3
20260509015753 68 213 2.0 9.0 0.00 0.00 0.00 52 1025.2
20260509015439 68 225 2.0 9.0 0.00 0.00 0.00 53 1025.3
20260509015337 68 200 4.0 9.0 0.00 0.00 0.00 53 1025.3
20260509015238 68 231 4.0 9.0 0.00 0.00 0.00 51 1025.3
20260509015137 68 229 5.0 9.0 0.00 0.00 0.00 49 1025.3
20260509014940 69 192 5.0 9.0 0.00 0.00 0.00 50 1025.4
20260509014840 69 194 3.0 6.0 0.00 0.00 0.00 51 1025.4
20260509014737 69 189 2.0 6.0 0.00 0.00 0.00 52 1025.3
20260509014637 69 223 3.0 6.0 0.00 0.00 0.00 52 1025.4
20260509014548 69 155 4.0 8.0 0.00 0.00 0.00 52 1025.4
20260509014439 69 174 4.0 8.0 0.00 0.00 0.00 52 1025.4
20260509014337 68 150 3.0 8.0 0.00 0.00 0.00 53 1025.4
20260509014237 68 169 3.0 8.0 0.00 0.00 0.00 52 1025.4
20260509014138 68 188 2.0 8.0 0.00 0.00 0.00 52 1025.5
20260509013941 68 147 1.0 8.0 0.00 0.00 0.00 53 1025.5
20260509013911 68 54 2.0 8.0 0.00 0.00 0.00 53 1025.5
20260509013839 68 232 4.0 8.0 0.00 0.00 0.00 53 1025.5
20260509013818 67 148 3.0 8.0 0.00 0.00 0.00 53 1025.6
20260509013753 68 196 2.0 8.0 0.00 0.00 0.00 53 1025.6
20260509013437 68 303 3.0 8.0 0.00 0.00 0.00 53 1025.5
20260509013339 68 294 4.0 8.0 0.00 0.00 0.00 53 1025.5
20260509013237 68 286 3.0 8.0 0.00 0.00 0.00 53 1025.6
20260509013138 68 276 2.0 6.0 0.00 0.00 0.00 53 1025.5
20260509013047 68 205 2.0 6.0 0.00 0.00 0.00 53 1025.6
20260509012937 68 282 2.0 6.0 0.00 0.00 0.00 54 1025.5
20260509012837 68 238 3.0 6.0 0.00 0.00 0.00 53 1025.6
20260509012737 68 222 3.0 6.0 0.00 0.00 0.00 53 1025.5
20260509012639 68 202 1.0 6.0 0.00 0.00 0.00 53 1025.6
20260509012547 68 196 2.0 6.0 0.00 0.00 0.00 53 1025.6
20260509012436 68 167 2.0 6.0 0.00 0.00 0.00 53 1025.6
20260509012336 68 163 1.0 6.0 0.00 0.00 0.00 54 1025.6
20260509012243 67 155 2.0 7.0 0.00 0.00 0.00 55 1025.6
20260509012138 67 171 3.0 7.0 0.00 0.00 0.00 55 1025.6
20260509011937 67 155 4.0 7.0 0.00 0.00 0.00 54 1025.6
20260509011837 67 189 2.0 7.0 0.00 0.00 0.00 54 1025.6
20260509011743 67 191 2.0 7.0 0.00 0.00 0.00 53 1025.5
20260509011640 67 175 3.0 7.0 0.00 0.00 0.00 52 1025.6
20260509011559 67 195 4.0 7.0 0.00 0.00 0.00 52 1025.7
20260509011437 68 193 3.0 7.0 0.00 0.00 0.00 53 1025.5
20260509011337 68 225 1.0 7.0 0.00 0.00 0.00 54 1025.6
20260509011242 67 255 1.0 6.0 0.00 0.00 0.00 55 1025.6
20260509011137 67 253 1.0 6.0 0.00 0.00 0.00 54 1025.5
20260509010937 67 193 3.0 6.0 0.00 0.00 0.00 54 1025.5
20260509010839 67 192 2.0 6.0 0.00 0.00 0.00 55 1025.5
20260509010739 67 197 2.0 5.0 0.00 0.00 0.00 55 1025.5
20260509010637 67 246 1.0 5.0 0.00 0.00 0.00 55 1025.5
20260509010542 67 194 1.0 5.0 0.00 0.00 0.00 55 1025.5
20260509010436 67 240 2.0 5.0 0.00 0.00 0.00 56 1025.4
20260509010338 67 219 4.0 5.0 0.00 0.00 0.00 55 1025.5
20260509010238 67 198 2.0 6.0 0.00 0.00 0.00 55 1025.4
20260509010138 67 254 2.0 6.0 0.00 0.00 0.00 57 1025.4
20260509010040 67 228 3.0 6.0 0.00 0.00 0.00 55 1025.4
20260509005937 67 234 2.0 6.0 0.00 0.00 0.00 56 1025.4
20260509005837 67 240 1.0 6.0 0.00 0.00 0.00 56 1025.5
20260509005737 67 229 1.0 6.0 0.00 0.00 0.00 57 1025.7
20260509005637 67 219 0.0 6.0 0.00 0.00 0.00 57 1025.7
20260509005537 67 219 1.0 6.0 0.00 0.00 0.00 56 1025.8
20260509005440 67 219 2.0 6.0 0.00 0.00 0.00 56 1025.8
20260509005337 67 209 2.0 6.0 0.00 0.00 0.00 56 1025.8
20260509005237 67 213 2.0 6.0 0.00 0.00 0.00 57 1025.8
20260509005139 66 263 3.0 6.0 0.00 0.00 0.00 58 1025.9
20260509005038 66 238 2.0 6.0 0.00 0.00 0.00 57 1025.9
20260509004936 66 252 2.0 6.0 0.00 0.00 0.00 57 1025.9
20260509004832 66 272 2.0 6.0 0.00 0.00 0.00 57 1025.9
20260509004727 66 288 2.0 6.0 0.00 0.00 0.00 56 1026.0
20260509004626 66 288 2.0 6.0 0.00 0.00 0.00 57 1025.9
20260509004526 66 257 3.0 6.0 0.00 0.00 0.00 57 1025.9
20260509004419 66 223 3.0 6.0 0.00 0.00 0.00 58 1025.9
20260509004319 66 257 3.0 5.0 0.00 0.00 0.00 57 1025.9
20260509004224 66 244 1.0 5.0 0.00 0.00 0.00 57 1025.9
20260509004115 66 179 3.0 5.0 0.00 0.00 0.00 56 1025.9
20260509003911 66 245 2.0 5.0 0.00 0.00 0.00 59 1025.9
20260509003816 65 268 2.0 5.0 0.00 0.00 0.00 58 1025.9
20260509003710 65 234 3.0 5.0 0.00 0.00 0.00 58 1025.8
20260509003609 65 209 3.0 5.0 0.00 0.00 0.00 57 1025.9
20260509003410 66 198 3.0 6.0 0.00 0.00 0.00 57 1025.9
20260509003337 66 231 3.0 6.0 0.00 0.00 0.00 58 1026.0
20260509003313 66 227 2.0 6.0 0.00 0.00 0.00 59 1026.0
20260509003246 65 251 2.0 6.0 0.00 0.00 0.00 58 1025.9
20260509003223 65 278 2.0 6.0 0.00 0.00 0.00 58 1025.9
20260509002911 65 222 3.0 6.0 0.00 0.00 0.00 58 1025.8
20260509002813 65 248 2.0 6.0 0.00 0.00 0.00 58 1025.8
20260509002713 65 231 2.0 7.0 0.00 0.00 0.00 59 1025.8
20260509002611 65 221 1.0 7.0 0.00 0.00 0.00 60 1025.8
20260509002408 65 246 1.0 7.0 0.00 0.00 0.00 60 1025.9
20260509002309 65 210 1.0 7.0 0.00 0.00 0.00 59 1025.8
20260509002244 65 259 2.0 7.0 0.00 0.00 0.00 59 1026.0
20260509002214 65 267 3.0 7.0 0.00 0.00 0.00 60 1025.9
20260509002115 65 236 3.0 7.0 0.00 0.00 0.00 60 1025.8
20260509001840 65 274 2.0 7.0 0.00 0.00 0.00 60 1025.9
20260509001815 65 257 2.0 7.0 0.00 0.00 0.00 60 1025.9
20260509001748 64 275 2.0 7.0 0.00 0.00 0.00 60 1025.9
20260509001723 64 192 2.0 7.0 0.00 0.00 0.00 60 1025.8
20260509001409 64 198 1.0 7.0 0.00 0.00 0.00 61 1025.9
20260509001308 64 261 0.0 7.0 0.00 0.00 0.00 60 1025.8
20260509001215 64 289 1.0 7.0 0.00 0.00 0.00 60 1025.9
20260509001110 64 217 3.0 7.0 0.00 0.00 0.00 60 1025.8
20260509000938 64 263 3.0 7.0 0.00 0.00 0.00 61 1025.8
20260509000849 64 294 3.0 6.0 0.00 0.00 0.00 61 1025.9
20260509000824 64 259 2.0 6.0 0.00 0.00 0.00 61 1025.8
20260509000800 64 262 1.0 6.0 0.00 0.00 0.00 61 1025.9
20260509000734 64 223 2.0 3.0 0.00 0.00 0.00 61 1025.8
20260509000410 64 229 1.0 3.0 0.00 0.00 0.00 62 1025.8
20260509000311 64 231 1.0 3.0 0.00 0.00 0.00 62 1025.9
20260509000211 64 240 1.0 3.0 0.00 0.00 0.00 62 1025.7
20260509000110 63 175 1.0 3.0 0.00 0.00 0.00 62 1025.8
20260508235912 63 300 1.0 4.0 0.00 0.00 0.00 63 1025.8
20260508235845 63 259 2.0 5.0 0.00 0.00 0.00 63 1025.9
20260508235819 63 233 1.0 7.0 0.00 0.00 0.00 62 1025.8
20260508235752 63 207 1.0 9.0 0.00 0.00 0.00 63 1025.8
20260508235725 63 274 1.0 9.0 0.00 0.00 0.00 62 1025.9
20260508235410 63 280 2.0 9.0 0.00 0.00 0.00 62 1026.0
20260508235309 63 279 2.0 9.0 0.00 0.00 0.00 63 1026.0
20260508235209 63 255 3.0 9.0 0.00 0.00 0.00 64 1026.0
20260508235105 63 258 2.0 9.0 0.00 0.00 0.00 64 1026.0
20260508235000 62 246 3.0 9.0 0.00 0.00 0.00 64 1026.0
20260508234901 62 294 5.0 9.0 0.00 0.00 0.00 63 1026.0
20260508234800 62 288 5.0 9.0 0.00 0.00 0.00 63 1026.0
20260508234657 62 265 4.0 9.0 0.00 0.00 0.00 63 1026.0
20260508234554 62 261 3.0 8.0 0.00 0.00 0.00 63 1026.1
20260508234450 62 288 2.0 8.0 0.00 0.00 0.00 63 1026.0
20260508234348 62 284 3.0 8.0 0.00 0.00 0.00 64 1026.1
20260508234247 62 242 3.0 8.0 0.00 0.00 0.00 64 1026.0
20260508234145 62 250 2.0 8.0 0.00 0.00 0.00 64 1026.1
20260508234044 62 230 3.0 8.0 0.00 0.00 0.00 64 1026.1
20260508233938 62 207 4.0 8.0 0.00 0.00 0.00 64 1026.0
20260508233838 62 259 4.0 8.0 0.00 0.00 0.00 64 1026.0
20260508233737 62 279 5.0 7.0 0.00 0.00 0.00 64 1025.9
20260508233643 62 242 4.0 7.0 0.00 0.00 0.00 64 1026.0
20260508233539 62 261 3.0 6.0 0.00 0.00 0.00 64 1026.1
20260508233437 62 257 3.0 6.0 0.00 0.00 0.00 64 1026.1
20260508233339 62 254 2.0 6.0 0.00 0.00 0.00 65 1026.1
20260508233237 62 242 2.0 6.0 0.00 0.00 0.00 64 1026.0
20260508233040 62 232 1.0 6.0 0.00 0.00 0.00 65 1026.1
20260508232937 62 274 1.0 6.0 0.00 0.00 0.00 66 1026.0
20260508232840 62 225 0.0 6.0 0.00 0.00 0.00 66 1026.1
20260508232740 62 240 1.0 6.0 0.00 0.00 0.00 66 1026.1
20260508232636 61 225 3.0 6.0 0.00 0.00 0.00 65 1026.1
20260508232533 61 225 4.0 6.0 0.00 0.00 0.00 66 1026.1
20260508232431 61 243 3.0 6.0 0.00 0.00 0.00 66 1026.1
20260508232343 61 262 2.0 7.0 0.00 0.00 0.00 66 1026.1
20260508232321 61 269 2.0 8.0 0.00 0.00 0.00 66 1026.1
20260508232301 61 235 3.0 8.0 0.00 0.00 0.00 66 1026.1
20260508232230 61 232 3.0 8.0 0.00 0.00 0.00 67 1026.1
20260508231921 61 259 2.0 9.0 0.00 0.00 0.00 67 1026.1
20260508231820 61 254 2.0 9.0 0.00 0.00 0.00 67 1026.1
20260508231717 60 239 3.0 9.0 0.00 0.00 0.00 67 1026.1
20260508231622 60 258 3.0 9.0 0.00 0.00 0.00 67 1026.1
20260508231534 60 270 3.0 9.0 0.00 0.00 0.00 67 1026.2
20260508231417 60 281 5.0 9.0 0.00 0.00 0.00 67 1026.1
20260508231339 60 280 5.0 9.0 0.00 0.00 0.00 67 1026.1
20260508231318 60 256 5.0 9.0 0.00 0.00 0.00 67 1026.2
20260508231251 60 269 5.0 9.0 0.00 0.00 0.00 67 1026.1
20260508231229 60 272 2.0 9.0 0.00 0.00 0.00 68 1026.1
20260508230917 60 281 3.0 8.0 0.00 0.00 0.00 68 1026.1
20260508230812 60 258 3.0 8.0 0.00 0.00 0.00 68 1026.1
20260508230709 60 248 2.0 8.0 0.00 0.00 0.00 68 1026.2
20260508230610 60 261 3.0 8.0 0.00 0.00 0.00 68 1026.1
20260508230409 60 278 4.0 8.0 0.00 0.00 0.00 68 1026.1
20260508230311 60 254 3.0 8.0 0.00 0.00 0.00 68 1026.1
20260508230232 60 284 3.0 8.0 0.00 0.00 0.00 68 1026.1
20260508230211 60 252 4.0 8.0 0.00 0.00 0.00 68 1026.1
20260508230112 60 260 5.0 8.0 0.00 0.00 0.00 69 1026.1
20260508225836 60 268 4.0 8.0 0.00 0.00 0.00 69 1026.1
20260508225811 60 281 3.0 8.0 0.00 0.00 0.00 69 1026.1
20260508225752 59 240 4.0 8.0 0.00 0.00 0.00 69 1026.1
20260508225723 59 244 5.0 8.0 0.00 0.00 0.00 69 1026.1
20260508225410 59 269 4.0 8.0 0.00 0.00 0.00 69 1026.1
20260508225338 59 267 4.0 8.0 0.00 0.00 0.00 69 1026.0
20260508225317 59 238 4.0 8.0 0.00 0.00 0.00 69 1026.0
20260508225254 59 250 4.0 8.0 0.00 0.00 0.00 69 1026.0
20260508225222 59 251 4.0 8.0 0.00 0.00 0.00 69 1026.1
20260508224910 59 251 3.0 8.0 0.00 0.00 0.00 69 1026.0
20260508224811 59 270 3.0 8.0 0.00 0.00 0.00 69 1026.1
20260508224709 59 275 4.0 8.0 0.00 0.00 0.00 69 1026.1
20260508224614 59 300 4.0 8.0 0.00 0.00 0.00 70 1026.1
20260508224413 59 243 3.0 6.0 0.00 0.00 0.00 70 1026.0
20260508224309 59 183 3.0 6.0 0.00 0.00 0.00 70 1026.0
20260508224211 59 232 2.0 6.0 0.00 0.00 0.00 70 1026.1
20260508224108 59 232 2.0 6.0 0.00 0.00 0.00 70 1026.1
20260508223927 59 229 4.0 7.0 0.00 0.00 0.00 71 1026.0
20260508223907 58 298 3.0 7.0 0.00 0.00 0.00 71 1026.1
20260508223812 58 240 2.0 7.0 0.00 0.00 0.00 71 1026.0
20260508223752 58 257 3.0 7.0 0.00 0.00 0.00 71 1026.1
20260508223721 58 238 3.0 7.0 0.00 0.00 0.00 71 1026.0
20260508223410 58 240 3.0 7.0 0.00 0.00 0.00 71 1026.0
20260508223311 58 243 3.0 7.0 0.00 0.00 0.00 71 1025.9
20260508223213 58 257 4.0 7.0 0.00 0.00 0.00 71 1026.0
20260508223111 58 281 4.0 7.0 0.00 0.00 0.00 71 1026.0
20260508222909 58 248 4.0 7.0 0.00 0.00 0.00 72 1026.0
20260508222814 58 252 4.0 7.0 0.00 0.00 0.00 72 1026.0
20260508222709 58 227 4.0 7.0 0.00 0.00 0.00 72 1026.0
20260508222613 58 263 3.0 7.0 0.00 0.00 0.00 72 1025.9
20260508222409 58 260 3.0 7.0 0.00 0.00 0.00 72 1025.9
20260508222309 58 247 3.0 7.0 0.00 0.00 0.00 72 1026.0
20260508222210 58 249 4.0 7.0 0.00 0.00 0.00 72 1026.0
20260508222105 58 261 4.0 7.0 0.00 0.00 0.00 72 1025.9
20260508222009 58 227 2.0 6.0 0.00 0.00 0.00 73 1025.9
20260508221904 58 272 3.0 6.0 0.00 0.00 0.00 73 1026.0
20260508221803 58 287 3.0 6.0 0.00 0.00 0.00 73 1025.8
20260508221659 58 256 2.0 6.0 0.00 0.00 0.00 73 1025.9
20260508221600 57 269 2.0 6.0 0.00 0.00 0.00 74 1025.8
20260508221452 57 271 2.0 5.0 0.00 0.00 0.00 74 1026.0
20260508221353 57 270 3.0 5.0 0.00 0.00 0.00 74 1026.0
20260508221251 57 267 2.0 5.0 0.00 0.00 0.00 73 1026.0
20260508221149 57 219 2.0 5.0 0.00 0.00 0.00 74 1025.9
20260508221044 57 238 3.0 5.0 0.00 0.00 0.00 74 1025.8
20260508220953 57 270 2.0 5.0 0.00 0.00 0.00 74 1026.0
20260508220856 57 225 2.0 5.0 0.00 0.00 0.00 74 1025.9
20260508220738 57 250 3.0 5.0 0.00 0.00 0.00 74 1025.8
20260508220637 57 234 3.0 6.0 0.00 0.00 0.00 75 1025.9
20260508220539 56 254 3.0 6.0 0.00 0.00 0.00 75 1025.8
20260508220441 56 261 2.0 7.0 0.00 0.00 0.00 75 1025.7
20260508220339 56 238 3.0 7.0 0.00 0.00 0.00 75 1025.8
20260508220237 56 284 2.0 7.0 0.00 0.00 0.00 75 1025.6
20260508220137 56 269 2.0 7.0 0.00 0.00 0.00 75 1025.7
20260508220036 56 250 3.0 7.0 0.00 0.00 0.00 75 1025.7
20260508215940 56 257 4.0 7.0 0.00 0.00 0.00 75 1025.9
20260508215840 56 263 3.0 7.0 0.00 0.00 0.00 75 1025.8
20260508215738 56 271 2.0 7.0 0.00 0.00 0.00 75 1025.8
20260508215637 56 259 3.0 7.0 0.00 0.00 0.00 75 1025.8
20260508215536 56 265 3.0 7.0 0.00 0.00 0.00 75 1025.7
20260508215439 56 252 2.0 6.0 0.00 0.00 0.00 76 1025.7
20260508215338 56 259 2.0 6.0 0.00 0.00 0.00 76 1025.6
20260508215311 56 246 2.0 6.0 0.00 0.00 0.00 76 1025.7
20260508215253 56 250 2.0 6.0 0.00 0.00 0.00 76 1025.7
20260508215231 55 238 2.0 6.0 0.00 0.00 0.00 76 1025.7
20260508214942 55 242 2.0 6.0 0.00 0.00 0.00 76 1025.6
20260508214840 55 254 2.0 4.0 0.00 0.00 0.00 76 1025.7
20260508214736 55 254 2.0 4.0 0.00 0.00 0.00 77 1025.6
20260508214636 55 264 2.0 4.0 0.00 0.00 0.00 77 1025.7
20260508214539 55 281 2.0 4.0 0.00 0.00 0.00 77 1025.7
20260508214441 55 265 2.0 4.0 0.00 0.00 0.00 77 1025.6
20260508214337 55 256 2.0 4.0 0.00 0.00 0.00 77 1025.6
20260508214237 55 263 2.0 4.0 0.00 0.00 0.00 77 1025.5
20260508214138 54 253 2.0 6.0 0.00 0.00 0.00 78 1025.6
20260508214036 54 309 1.0 6.0 0.00 0.00 0.00 78 1025.6
20260508213942 54 271 0.0 6.0 0.00 0.00 0.00 78 1025.6
20260508213840 54 258 1.0 6.0 0.00 0.00 0.00 78 1025.5
20260508213738 54 258 2.0 6.0 0.00 0.00 0.00 78 1025.5
20260508213637 54 263 2.0 6.0 0.00 0.00 0.00 78 1025.5
20260508213537 54 266 2.0 6.0 0.00 0.00 0.00 78 1025.6
20260508213439 53 270 2.0 6.0 0.00 0.00 0.00 78 1025.5
20260508213338 53 251 2.0 6.0 0.00 0.00 0.00 78 1025.5
20260508213238 53 267 2.0 6.0 0.00 0.00 0.00 77 1025.5
20260508213211 53 270 2.0 6.0 0.00 0.00 0.00 77 1025.4
20260508213149 53 267 2.0 6.0 0.00 0.00 0.00 77 1025.5
20260508213112 53 245 2.0 6.0 0.00 0.00 0.00 77 1025.4
20260508213046 53 279 4.0 6.0 0.00 0.00 0.00 77 1025.5
20260508212814 53 261 4.0 6.0 0.00 0.00 0.00 77 1025.3
20260508212752 53 270 3.0 6.0 0.00 0.00 0.00 77 1025.4
20260508212730 53 261 3.0 6.0 0.00 0.00 0.00 77 1025.3
20260508212442 53 264 3.0 6.0 0.00 0.00 0.00 77 1025.4
20260508212336 53 287 3.0 6.0 0.00 0.00 0.00 77 1025.3
20260508212237 53 263 2.0 4.0 0.00 0.00 0.00 76 1025.3
20260508212142 53 267 2.0 4.0 0.00 0.00 0.00 76 1025.3
20260508212041 53 269 1.0 4.0 0.00 0.00 0.00 76 1025.4
20260508211940 53 282 2.0 4.0 0.00 0.00 0.00 76 1025.3
20260508211838 53 276 3.0 4.0 0.00 0.00 0.00 76 1025.3
20260508211738 53 273 2.0 4.0 0.00 0.00 0.00 76 1025.3
20260508211637 53 265 2.0 3.0 0.00 0.00 0.00 76 1025.3
20260508211537 53 275 2.0 3.0 0.00 0.00 0.00 76 1025.3
20260508211436 53 265 2.0 3.0 0.00 0.00 0.00 76 1025.2
20260508211339 53 273 2.0 3.0 0.00 0.00 0.00 76 1025.2
20260508211236 53 270 2.0 3.0 0.00 0.00 0.00 76 1025.2
20260508211139 53 279 1.0 3.0 0.00 0.00 0.00 76 1025.2
20260508211037 53 284 2.0 3.0 0.00 0.00 0.00 76 1025.2
20260508210937 53 286 2.0 3.0 0.00 0.00 0.00 75 1025.2
20260508210840 53 289 1.0 3.0 0.00 0.00 0.00 76 1025.2
20260508210737 53 282 1.0 3.0 0.00 0.00 0.00 76 1025.1
20260508210640 53 272 1.0 3.0 0.00 0.00 0.00 75 1025.1
20260508210539 53 272 2.0 3.0 0.00 0.00 0.00 75 1025.2
20260508210439 53 279 1.0 3.0 0.00 0.00 0.00 75 1025.1
20260508210338 53 275 1.0 3.0 0.00 0.00 0.00 75 1025.0
20260508210237 53 286 1.0 3.0 0.00 0.00 0.00 75 1025.1
20260508210138 54 282 1.0 3.0 0.00 0.00 0.00 75 1025.1
20260508210037 54 269 1.0 3.0 0.00 0.00 0.00 75 1025.0
20260508205937 54 270 1.0 3.0 0.00 0.00 0.00 75 1025.1
20260508205836 54 270 1.0 4.0 0.00 0.00 0.00 75 1025.0
20260508205737 54 282 2.0 4.0 0.00 0.00 0.00 75 1025.0
20260508205638 54 274 2.0 4.0 0.00 0.00 0.00 75 1025.1
20260508205535 54 305 2.0 4.0 0.00 0.00 0.00 75 1025.0
20260508205436 54 271 2.0 6.0 0.00 0.00 0.00 75 1025.0
20260508205332 54 272 2.0 6.0 0.00 0.00 0.00 75 1024.9
20260508205225 54 277 2.0 6.0 0.00 0.00 0.00 75 1024.9
20260508205131 54 296 2.0 6.0 0.00 0.00 0.00 75 1024.9
20260508205024 54 290 2.0 6.0 0.00 0.00 0.00 75 1024.9
20260508204926 54 275 2.0 6.0 0.00 0.00 0.00 75 1025.0
20260508204822 54 273 2.0 6.0 0.00 0.00 0.00 75 1024.9
20260508204722 54 284 2.0 6.0 0.00 0.00 0.00 75 1024.9
20260508204621 54 277 3.0 6.0 0.00 0.00 0.00 75 1024.9
20260508204517 54 277 3.0 6.0 0.00 0.00 0.00 75 1024.8
20260508204419 54 269 3.0 6.0 0.00 0.00 0.00 75 1024.8
20260508204317 54 271 3.0 6.0 0.00 0.00 0.00 75 1024.9
20260508204221 54 285 3.0 6.0 0.00 0.00 0.00 75 1024.8
20260508204114 54 289 2.0 6.0 0.00 0.00 0.00 75 1024.7
20260508204015 54 273 3.0 6.0 0.00 0.00 0.00 74 1024.8
20260508203911 54 278 3.0 6.0 0.00 0.00 0.00 74 1024.7
20260508203811 54 271 3.0 4.0 0.00 0.00 0.00 74 1024.8
20260508203710 55 275 2.0 4.0 0.00 0.00 0.00 74 1024.7
20260508203610 55 270 2.0 4.0 0.00 0.00 0.00 74 1024.8
20260508203510 55 269 2.0 4.0 0.00 0.00 0.00 74 1024.7
20260508203410 55 268 2.0 4.0 0.00 0.00 0.00 74 1024.7
20260508203306 55 270 2.0 4.0 0.00 0.00 0.00 74 1024.7
20260508203205 55 272 2.0 6.0 0.00 0.00 0.00 74 1024.7
20260508203106 55 278 2.0 6.0 0.00 0.00 0.00 74 1024.6
20260508203006 55 273 2.0 6.0 0.00 0.00 0.00 74 1024.7
20260508202905 55 276 3.0 6.0 0.00 0.00 0.00 74 1024.6
20260508202801 55 276 2.0 6.0 0.00 0.00 0.00 74 1024.6
20260508202730 55 283 2.0 6.0 0.00 0.00 0.00 74 1024.7
20260508202559 55 261 2.0 6.0 0.00 0.00 0.00 74 1024.6
20260508202459 55 266 3.0 6.0 0.00 0.00 0.00 74 1024.6
20260508202357 55 273 3.0 6.0 0.00 0.00 0.00 74 1024.7
20260508202259 55 275 3.0 6.0 0.00 0.00 0.00 74 1024.6
20260508202157 55 270 2.0 6.0 0.00 0.00 0.00 74 1024.5
20260508202056 55 267 2.0 6.0 0.00 0.00 0.00 74 1024.6
20260508201955 55 265 2.0 6.0 0.00 0.00 0.00 74 1024.5
20260508201853 55 269 2.0 6.0 0.00 0.00 0.00 74 1024.5
20260508201752 55 265 3.0 6.0 0.00 0.00 0.00 74 1024.6
20260508201731 55 270 3.0 6.0 0.00 0.00 0.00 74 1024.5
20260508201712 55 272 4.0 6.0 0.00 0.00 0.00 74 1024.5
20260508201652 55 282 4.0 6.0 0.00 0.00 0.00 74 1024.5
20260508201345 55 257 3.0 6.0 0.00 0.00 0.00 74 1024.5
20260508201245 55 270 2.0 7.0 0.00 0.00 0.00 74 1024.3
20260508201148 55 271 2.0 8.0 0.00 0.00 0.00 74 1024.4
20260508201042 55 290 3.0 8.0 0.00 0.00 0.00 74 1024.4
20260508200941 55 269 4.0 8.0 0.00 0.00 0.00 74 1024.5
20260508200839 55 279 4.0 8.0 0.00 0.00 0.00 74 1024.3
20260508200815 55 263 3.0 8.0 0.00 0.00 0.00 74 1024.4
20260508200755 55 261 3.0 8.0 0.00 0.00 0.00 74 1024.4
20260508200736 55 263 4.0 8.0 0.00 0.00 0.00 74 1024.4
20260508200646 56 265 4.0 8.0 0.00 0.00 0.00 74 1024.3